Time,TemperatureF,DewpointF,PressureIn,WindDirection,WindDirectionDegrees,WindSpeedMPH,WindSpeedGustMPH,Humidity,HourlyPrecipIn,Conditions,Clouds,dailyrainin,SolarRadiationWatts/m^2,SoftwareType,DateUTC
2013-01-19 00:02:00,35.9,27.8,30.22,WNW,299,6.0,10.0,72,0.00,,CLR,0.04,0.00,VWS V14.01,2013-01-19 06:02:00,
2013-01-19 00:03:00,35.9,27.8,30.22,WNW,292,11.0,15.0,72,0.00,,CLR,0.00,0.00,VWS V14.01,2013-01-19 06:03:00,
2013-01-19 00:06:00,35.9,27.8,30.22,West,277,9.0,9.0,72,0.00,,CLR,0.00,0.00,VWS V14.01,2013-01-19 06:06:00,
2013-01-19 00:07:00,35.8,27.7,30.22,WNW,292,5.0,14.0,72,0.00,,CLR,0.00,0.00,VWS V14.01,2013-01-19 06:07:00,
2013-01-19 00:08:00,35.9,27.8,30.22,WNW,291,7.0,18.0,72,0.00,,CLR,0.04,0.00,VWS V14.01,2013-01-19 06:08:00,
2013-01-19 00:10:00,35.8,28.0,30.22,WNW,303,9.0,17.0,73,0.00,,CLR,0.00,0.00,VWS V14.01,2013-01-19 06:10:00,
2013-01-19 00:11:00,35.8,28.0,30.22,WNW,303,6.0,9.0,73,0.00,,CLR,0.00,0.00,VWS V14.01,2013-01-19 06:11:00,
2013-01-19 00:13:00,35.9,27.8,30.22,WNW,301,8.0,13.0,72,0.00,,CLR,0.00,0.00,VWS V14.01,2013-01-19 06:13:00,
2013-01-19 00:14:00,35.6,27.8,30.22,WNW,300,5.0,9.0,73,0.00,,CLR,0.00,0.00,VWS V14.01,2013-01-19 06:14:00,
2013-01-19 00:15:00,35.6,27.8,30.22,WNW,301,8.0,13.0,73,0.00,,CLR,0.00,0.00,VWS V14.01,2013-01-19 06:15:00,
2013-01-19 00:16:00,35.6,27.8,30.22,NW,317,7.0,11.0,73,0.00,,CLR,0.00,0.00,VWS V14.01,2013-01-19 06:16:00,
2013-01-19 00:17:00,35.6,27.8,30.22,WNW,299,5.0,11.0,73,0.00,,CLR,0.00,0.00,VWS V14.01,2013-01-19 06:17:00,
2013-01-19 00:18:00,35.6,27.8,30.22,WNW,296,5.0,9.0,73,0.00,,CLR,0.00,0.00,VWS V14.01,2013-01-19 06:18:00,
2013-01-19 00:20:00,35.6,27.8,30.21,WNW,286,8.0,13.0,73,0.00,,CLR,0.00,0.00,VWS V14.01,2013-01-19 06:20:00,
2013-01-19 00:21:00,35.6,27.8,30.22,NW,305,6.0,9.0,73,0.00,,CLR,0.00,0.00,VWS V14.01,2013-01-19 06:21:00,
2013-01-19 00:22:00,35.8,28.0,30.22,WNW,288,10.0,16.0,73,0.00,,CLR,0.00,0.00,VWS V14.01,2013-01-19 06:22:00,
2013-01-19 00:23:00,35.6,27.8,30.22,WNW,291,7.0,14.0,73,0.00,,CLR,0.00,0.00,VWS V14.01,2013-01-19 06:23:00,
2013-01-19 00:24:00,35.6,27.8,30.22,NW,309,10.0,10.0,73,0.00,,CLR,0.00,0.00,VWS V14.01,2013-01-19 06:24:00,
2013-01-19 00:25:00,35.6,27.8,30.22,WNW,289,6.0,11.0,73,0.00,,CLR,0.00,0.00,VWS V14.01,2013-01-19 06:25:00,
2013-01-19 00:26:00,35.6,27.8,30.22,WNW,302,5.0,11.0,73,0.00,,CLR,0.00,0.00,VWS V14.01,2013-01-19 06:26:00,
2013-01-19 00:27:00,35.5,27.7,30.22,WNW,294,5.0,7.0,73,0.00,,CLR,0.00,0.00,VWS V14.01,2013-01-19 06:27:00,
2013-01-19 00:28:00,35.5,27.7,30.22,WNW,292,9.0,9.0,73,0.00,,CLR,0.00,0.00,VWS V14.01,2013-01-19 06:28:00,
2013-01-19 00:30:00,35.5,27.7,30.22,WNW,292,7.0,12.0,73,0.00,,CLR,0.00,0.00,VWS V14.01,2013-01-19 06:30:00,
2013-01-19 00:31:00,35.5,27.7,30.22,West,269,12.0,15.0,73,0.00,,CLR,0.00,0.00,VWS V14.01,2013-01-19 06:31:00,
2013-01-19 00:32:00,35.6,27.8,30.21,WNW,288,9.0,9.0,73,0.00,,CLR,0.00,0.00,VWS V14.01,2013-01-19 06:32:00,
2013-01-19 00:35:00,35.6,27.8,30.22,NW,321,8.0,8.0,73,0.00,,CLR,0.00,0.00,VWS V14.01,2013-01-19 06:35:00,
2013-01-19 00:36:00,35.5,27.7,30.22,WNW,288,5.0,8.0,73,0.00,,CLR,0.00,0.00,VWS V14.01,2013-01-19 06:36:00,
2013-01-19 00:37:00,35.5,27.7,30.22,West,279,8.0,9.0,73,0.00,,CLR,0.00,0.00,VWS V14.01,2013-01-19 06:37:00,
2013-01-19 00:39:00,35.5,27.7,30.22,WNW,296,5.0,12.0,73,0.00,,CLR,0.00,0.00,VWS V14.01,2013-01-19 06:39:00,
2013-01-19 00:40:00,35.5,27.7,30.22,WNW,293,6.0,10.0,73,0.00,,CLR,0.00,0.00,VWS V14.01,2013-01-19 06:40:00,
2013-01-19 00:41:00,35.5,27.7,30.21,WNW,296,5.0,9.0,73,0.00,,CLR,0.00,0.00,VWS V14.01,2013-01-19 06:41:00,
2013-01-19 00:42:00,35.5,27.7,30.22,West,281,7.0,9.0,73,0.00,,CLR,0.00,0.00,VWS V14.01,2013-01-19 06:42:00,
2013-01-19 00:44:00,35.5,27.7,30.22,WNW,295,7.0,11.0,73,0.00,,CLR,0.00,0.00,VWS V14.01,2013-01-19 06:44:00,
2013-01-19 00:45:00,35.5,27.7,30.21,WNW,300,6.0,10.0,73,0.00,,CLR,0.00,0.00,VWS V14.01,2013-01-19 06:45:00,
2013-01-19 00:46:00,35.6,27.8,30.22,WNW,282,10.0,14.0,73,0.00,,CLR,0.00,0.00,VWS V14.01,2013-01-19 06:46:00,
2013-01-19 00:47:00,35.6,27.8,30.22,WNW,287,8.0,10.0,73,0.00,,CLR,0.00,0.00,VWS V14.01,2013-01-19 06:47:00,
2013-01-19 00:49:00,35.6,27.8,30.21,WNW,295,5.0,10.0,73,0.00,,CLR,0.00,0.00,VWS V14.01,2013-01-19 06:49:00,
2013-01-19 00:51:00,35.6,27.8,30.21,WNW,290,4.0,7.0,73,0.00,,CLR,0.00,0.00,VWS V14.01,2013-01-19 06:51:00,
2013-01-19 00:54:00,35.6,27.8,30.21,WNW,294,6.0,11.0,73,0.00,,CLR,0.00,0.00,VWS V14.01,2013-01-19 06:54:00,
2013-01-19 00:55:00,35.5,27.7,30.22,WNW,300,5.0,11.0,73,0.00,,CLR,0.00,0.00,VWS V14.01,2013-01-19 06:55:00,
2013-01-19 00:56:00,35.6,27.8,30.21,WNW,291,9.0,10.0,73,0.00,,CLR,0.00,0.00,VWS V14.01,2013-01-19 06:56:00,
2013-01-19 00:57:00,35.6,27.8,30.21,West,281,12.0,12.0,73,0.00,,CLR,0.00,0.00,VWS V14.01,2013-01-19 06:57:00,
2013-01-19 00:58:00,35.6,27.8,30.21,NW,308,7.0,13.0,73,0.00,,CLR,0.00,0.00,VWS V14.01,2013-01-19 06:58:00,
2013-01-19 00:59:00,35.6,27.8,30.21,NW,304,8.0,9.0,73,0.00,,CLR,0.00,0.00,VWS V14.01,2013-01-19 06:59:00,
2013-01-19 01:00:00,35.6,27.8,30.22,WNW,298,8.0,13.0,73,0.00,,CLR,0.00,0.00,VWS V14.01,2013-01-19 07:00:00,
2013-01-19 01:01:00,35.6,27.8,30.21,WNW,284,10.0,16.0,73,0.00,,CLR,0.00,0.00,VWS V14.01,2013-01-19 07:01:00,
2013-01-19 01:02:00,35.6,27.5,30.21,WNW,296,7.0,11.0,72,0.00,,CLR,0.00,0.00,VWS V14.01,2013-01-19 07:02:00,
2013-01-19 01:03:00,35.6,27.5,30.22,WNW,283,9.0,9.0,72,0.00,,CLR,0.00,0.00,VWS V14.01,2013-01-19 07:03:00,
2013-01-19 01:05:00,35.6,27.8,30.21,West,273,9.0,9.0,73,0.00,,CLR,0.00,0.00,VWS V14.01,2013-01-19 07:05:00,
2013-01-19 01:06:00,35.6,27.8,30.21,West,267,9.0,9.0,73,0.00,,CLR,0.00,0.00,VWS V14.01,2013-01-19 07:06:00,
2013-01-19 01:10:00,35.6,27.8,30.21,West,279,10.0,10.0,73,0.00,,CLR,0.00,0.00,VWS V14.01,2013-01-19 07:10:00,
2013-01-19 01:15:00,35.6,27.8,30.21,WNW,298,7.0,8.0,73,0.00,,CLR,0.00,0.00,VWS V14.01,2013-01-19 07:15:00,
2013-01-19 01:16:00,35.6,27.8,30.21,WNW,290,7.0,13.0,73,0.00,,CLR,0.00,0.00,VWS V14.01,2013-01-19 07:16:00,
2013-01-19 01:17:00,35.6,27.8,30.22,WNW,302,5.0,11.0,73,0.00,,CLR,0.00,0.00,VWS V14.01,2013-01-19 07:17:00,
2013-01-19 01:18:00,35.6,27.8,30.22,WNW,283,7.0,10.0,73,0.00,,CLR,0.00,0.00,VWS V14.01,2013-01-19 07:18:00,
2013-01-19 01:19:00,35.6,27.5,30.21,WNW,286,9.0,9.0,72,0.00,,CLR,0.00,0.00,VWS V14.01,2013-01-19 07:19:00,
2013-01-19 01:20:00,35.6,27.8,30.22,WNW,295,6.0,12.0,73,0.00,,CLR,0.00,0.00,VWS V14.01,2013-01-19 07:20:00,
2013-01-19 01:21:00,35.6,27.8,30.21,WNW,297,7.0,10.0,73,0.00,,CLR,0.00,0.00,VWS V14.01,2013-01-19 07:21:00,
2013-01-19 01:22:00,35.6,27.8,30.21,WNW,288,7.0,10.0,73,0.00,,CLR,0.00,0.00,VWS V14.01,2013-01-19 07:22:00,
2013-01-19 01:23:00,35.6,27.8,30.22,WNW,286,3.0,7.0,73,0.00,,CLR,0.00,0.00,VWS V14.01,2013-01-19 07:23:00,
2013-01-19 01:24:00,35.5,27.7,30.21,WNW,296,6.0,10.0,73,0.00,,CLR,0.00,0.00,VWS V14.01,2013-01-19 07:24:00,
2013-01-19 01:25:00,35.5,27.7,30.22,WNW,284,8.0,12.0,73,0.00,,CLR,0.00,0.00,VWS V14.01,2013-01-19 07:25:00,
2013-01-19 01:26:00,35.5,27.7,30.21,WNW,291,7.0,18.0,73,0.00,,CLR,0.00,0.00,VWS V14.01,2013-01-19 07:26:00,
2013-01-19 01:27:00,35.6,27.8,30.21,West,275,8.0,12.0,73,0.00,,CLR,0.00,0.00,VWS V14.01,2013-01-19 07:27:00,
2013-01-19 01:28:00,35.6,27.8,30.21,WNW,298,5.0,9.0,73,0.00,,CLR,0.00,0.00,VWS V14.01,2013-01-19 07:28:00,
2013-01-19 01:29:00,35.6,27.8,30.21,NW,312,5.0,10.0,73,0.00,,CLR,0.00,0.00,VWS V14.01,2013-01-19 07:29:00,
2013-01-19 01:30:00,35.6,27.8,30.21,WNW,288,8.0,8.0,73,0.00,,CLR,0.00,0.00,VWS V14.01,2013-01-19 07:30:00,
2013-01-19 01:31:00,35.6,27.8,30.22,WNW,297,5.0,9.0,73,0.00,,CLR,0.00,0.00,VWS V14.01,2013-01-19 07:31:00,
2013-01-19 01:32:00,35.6,27.8,30.21,WNW,296,9.0,10.0,73,0.00,,CLR,0.00,0.00,VWS V14.01,2013-01-19 07:32:00,
2013-01-19 01:33:00,35.5,27.7,30.22,WNW,298,5.0,9.0,73,0.00,,CLR,0.00,0.00,VWS V14.01,2013-01-19 07:33:00,
2013-01-19 01:34:00,35.5,27.7,30.21,WNW,292,6.0,9.0,73,0.00,,CLR,0.00,0.00,VWS V14.01,2013-01-19 07:34:00,
2013-01-19 01:35:00,35.5,28.4,30.22,WNW,301,8.0,11.0,75,0.00,,CLR,0.00,0.00,VWS V14.01,2013-01-19 07:35:00,
2013-01-19 01:36:00,35.5,27.7,30.21,West,264,18.0,18.0,73,0.00,,CLR,0.00,0.00,VWS V14.01,2013-01-19 07:36:00,
2013-01-19 01:37:00,35.5,27.7,30.21,WNW,292,5.0,18.0,73,0.00,,CLR,0.00,0.00,VWS V14.01,2013-01-19 07:37:00,
2013-01-19 01:38:00,35.5,27.7,30.21,WNW,287,6.0,8.0,73,0.00,,CLR,0.00,0.00,VWS V14.01,2013-01-19 07:38:00,
2013-01-19 01:39:00,35.5,27.7,30.21,WNW,290,6.0,15.0,73,0.00,,CLR,0.00,0.00,VWS V14.01,2013-01-19 07:39:00,
2013-01-19 01:40:00,35.5,27.7,30.21,WNW,290,8.0,9.0,73,0.00,,CLR,0.00,0.00,VWS V14.01,2013-01-19 07:40:00,
2013-01-19 01:41:00,35.5,27.7,30.21,WNW,298,8.0,8.0,73,0.00,,CLR,0.00,0.00,VWS V14.01,2013-01-19 07:41:00,
2013-01-19 01:42:00,35.5,27.7,30.21,WNW,297,8.0,12.0,73,0.00,,CLR,0.00,0.00,VWS V14.01,2013-01-19 07:42:00,
2013-01-19 01:43:00,35.5,27.7,30.21,WNW,283,4.0,12.0,73,0.00,,CLR,0.00,0.00,VWS V14.01,2013-01-19 07:43:00,
2013-01-19 01:44:00,35.3,27.5,30.21,WNW,292,6.0,13.0,73,0.00,,CLR,0.00,0.00,VWS V14.01,2013-01-19 07:44:00,
2013-01-19 01:45:00,35.3,27.5,30.21,WNW,290,5.0,11.0,73,0.00,,CLR,0.00,0.00,VWS V14.01,2013-01-19 07:45:00,
2013-01-19 01:46:00,35.3,27.5,30.21,WNW,288,6.0,9.0,73,0.00,,CLR,0.00,0.00,VWS V14.01,2013-01-19 07:46:00,
2013-01-19 01:47:00,35.3,27.5,30.21,WNW,284,5.0,8.0,73,0.00,,CLR,0.00,0.00,VWS V14.01,2013-01-19 07:47:00,
2013-01-19 01:48:00,35.3,27.5,30.21,WNW,296,6.0,9.0,73,0.00,,CLR,0.00,0.00,VWS V14.01,2013-01-19 07:48:00,
2013-01-19 01:49:00,35.3,27.5,30.21,WNW,284,6.0,8.0,73,0.00,,CLR,0.00,0.00,VWS V14.01,2013-01-19 07:49:00,
2013-01-19 01:50:00,35.3,27.5,30.21,WNW,286,8.0,11.0,73,0.00,,CLR,0.00,0.00,VWS V14.01,2013-01-19 07:50:00,
2013-01-19 01:51:00,35.3,27.5,30.21,WNW,292,11.0,14.0,73,0.00,,CLR,0.00,0.00,VWS V14.01,2013-01-19 07:51:00,
2013-01-19 01:52:00,35.3,27.5,30.21,WNW,284,7.0,11.0,73,0.00,,CLR,0.00,0.00,VWS V14.01,2013-01-19 07:52:00,
2013-01-19 01:53:00,35.3,27.5,30.21,WNW,290,12.0,13.0,73,0.00,,CLR,0.00,0.00,VWS V14.01,2013-01-19 07:53:00,
2013-01-19 01:54:00,35.3,27.5,30.21,WNW,285,7.0,12.0,73,0.00,,CLR,0.00,0.00,VWS V14.01,2013-01-19 07:54:00,
2013-01-19 01:55:00,35.3,27.5,30.21,WNW,290,5.0,8.0,73,0.00,,CLR,0.00,0.00,VWS V14.01,2013-01-19 07:55:00,
2013-01-19 01:56:00,35.2,27.4,30.21,WNW,294,11.0,11.0,73,0.00,,CLR,0.00,0.00,VWS V14.01,2013-01-19 07:56:00,
2013-01-19 01:57:00,35.2,27.4,30.21,WNW,292,5.0,11.0,73,0.00,,CLR,0.00,0.00,VWS V14.01,2013-01-19 07:57:00,
2013-01-19 01:58:00,35.2,27.4,30.21,WNW,291,7.0,9.0,73,0.00,,CLR,0.00,0.00,VWS V14.01,2013-01-19 07:58:00,
2013-01-19 01:59:00,35.2,27.4,30.21,WNW,286,7.0,9.0,73,0.00,,CLR,0.00,0.00,VWS V14.01,2013-01-19 07:59:00,
2013-01-19 02:00:00,35.2,27.4,30.21,WNW,300,5.0,9.0,73,0.00,,CLR,0.00,0.00,VWS V14.01,2013-01-19 08:00:00,
2013-01-19 02:01:00,35.2,27.4,30.21,NW,309,6.0,8.0,73,0.00,,CLR,0.00,0.00,VWS V14.01,2013-01-19 08:01:00,
2013-01-19 02:02:00,35.2,27.4,30.21,WNW,283,7.0,8.0,73,0.00,,CLR,0.00,0.00,VWS V14.01,2013-01-19 08:02:00,
2013-01-19 02:03:00,35.2,27.4,30.21,WNW,294,7.0,10.0,73,0.00,,CLR,0.00,0.00,VWS V14.01,2013-01-19 08:03:00,
2013-01-19 02:04:00,35.2,27.8,30.21,WNW,292,6.0,11.0,74,0.00,,CLR,0.00,0.00,VWS V14.01,2013-01-19 08:04:00,
2013-01-19 02:05:00,35.2,27.8,30.21,WNW,286,10.0,10.0,74,0.00,,CLR,0.00,0.00,VWS V14.01,2013-01-19 08:05:00,
2013-01-19 02:06:00,35.2,27.8,30.21,WNW,298,8.0,10.0,74,0.00,,CLR,0.00,0.00,VWS V14.01,2013-01-19 08:06:00,
2013-01-19 02:07:00,35.2,27.8,30.21,WNW,283,7.0,10.0,74,0.00,,CLR,0.00,0.00,VWS V14.01,2013-01-19 08:07:00,
2013-01-19 02:08:00,35.2,27.8,30.21,WNW,288,6.0,9.0,74,0.00,,CLR,0.00,0.00,VWS V14.01,2013-01-19 08:08:00,
2013-01-19 02:09:00,35.0,27.6,30.21,WNW,284,5.0,8.0,74,0.00,,CLR,0.00,0.00,VWS V14.01,2013-01-19 08:09:00,
2013-01-19 02:10:00,35.0,27.6,30.21,WNW,289,5.0,8.0,74,0.00,,CLR,0.00,0.00,VWS V14.01,2013-01-19 08:10:00,
2013-01-19 02:11:00,35.0,27.6,30.21,WNW,286,6.0,10.0,74,0.00,,CLR,0.00,0.00,VWS V14.01,2013-01-19 08:11:00,
2013-01-19 02:12:00,35.0,27.6,30.21,WNW,294,7.0,8.0,74,0.00,,CLR,0.00,0.00,VWS V14.01,2013-01-19 08:12:00,
2013-01-19 02:13:00,35.0,27.6,30.21,West,281,10.0,10.0,74,0.00,,CLR,0.00,0.00,VWS V14.01,2013-01-19 08:13:00,
2013-01-19 02:14:00,35.0,27.6,30.21,West,277,10.0,10.0,74,0.00,,CLR,0.00,0.00,VWS V14.01,2013-01-19 08:14:00,
2013-01-19 02:15:00,35.0,27.6,30.21,WNW,298,5.0,17.0,74,0.00,,CLR,0.00,0.00,VWS V14.01,2013-01-19 08:15:00,
2013-01-19 02:16:00,35.0,27.6,30.21,WNW,294,7.0,14.0,74,0.00,,CLR,0.00,0.00,VWS V14.01,2013-01-19 08:16:00,
2013-01-19 02:17:00,35.0,27.6,30.21,WNW,286,5.0,9.0,74,0.00,,CLR,0.00,0.00,VWS V14.01,2013-01-19 08:17:00,
2013-01-19 02:18:00,35.0,27.6,30.21,WNW,296,8.0,8.0,74,0.00,,CLR,0.00,0.00,VWS V14.01,2013-01-19 08:18:00,
2013-01-19 02:19:00,35.0,27.6,30.21,West,281,6.0,9.0,74,0.00,,CLR,0.00,0.00,VWS V14.01,2013-01-19 08:19:00,
2013-01-19 02:20:00,35.0,27.6,30.21,WNW,290,5.0,8.0,74,0.00,,CLR,0.00,0.00,VWS V14.01,2013-01-19 08:20:00,
2013-01-19 02:21:00,35.0,27.6,30.21,WNW,292,8.0,10.0,74,0.00,,CLR,0.00,0.00,VWS V14.01,2013-01-19 08:21:00,
2013-01-19 02:22:00,34.9,27.5,30.21,WNW,284,7.0,8.0,74,0.00,,CLR,0.00,0.00,VWS V14.01,2013-01-19 08:22:00,
2013-01-19 02:23:00,34.9,27.5,30.21,WNW,293,5.0,9.0,74,0.00,,CLR,0.00,0.00,VWS V14.01,2013-01-19 08:23:00,
2013-01-19 02:24:00,34.9,27.5,30.21,NW,306,9.0,9.0,74,0.00,,CLR,0.00,0.00,VWS V14.01,2013-01-19 08:24:00,
2013-01-19 02:25:00,34.9,27.8,30.21,West,280,9.0,10.0,75,0.00,,CLR,0.00,0.00,VWS V14.01,2013-01-19 08:25:00,
2013-01-19 02:26:00,35.0,27.6,30.21,WNW,284,12.0,14.0,74,0.00,,CLR,0.00,0.00,VWS V14.01,2013-01-19 08:26:00,
2013-01-19 02:27:00,35.0,27.6,30.21,WNW,290,9.0,12.0,74,0.00,,CLR,0.00,0.00,VWS V14.01,2013-01-19 08:27:00,
2013-01-19 02:28:00,35.0,27.6,30.21,WNW,284,6.0,12.0,74,0.00,,CLR,0.00,0.00,VWS V14.01,2013-01-19 08:28:00,
2013-01-19 02:29:00,35.0,27.6,30.21,WNW,286,9.0,10.0,74,0.00,,CLR,0.00,0.00,VWS V14.01,2013-01-19 08:29:00,
2013-01-19 02:30:00,35.0,27.6,30.21,WNW,302,8.0,10.0,74,0.00,,CLR,0.00,0.00,VWS V14.01,2013-01-19 08:30:00,
2013-01-19 02:31:00,35.0,27.6,30.21,NNW,337,6.0,11.0,74,0.00,,CLR,0.00,0.00,VWS V14.01,2013-01-19 08:31:00,
2013-01-19 02:32:00,35.0,27.6,30.21,WNW,288,4.0,9.0,74,0.00,,CLR,0.00,0.00,VWS V14.01,2013-01-19 08:32:00,
2013-01-19 02:34:00,34.9,27.5,30.21,WNW,295,7.0,8.0,74,0.00,,CLR,0.00,0.00,VWS V14.01,2013-01-19 08:34:00,
2013-01-19 02:35:00,34.9,27.5,30.20,WNW,283,4.0,10.0,74,0.00,,CLR,0.00,0.00,VWS V14.01,2013-01-19 08:35:00,
2013-01-19 02:36:00,34.9,27.5,30.21,WNW,282,9.0,9.0,74,0.00,,CLR,0.00,0.00,VWS V14.01,2013-01-19 08:36:00,
2013-01-19 02:37:00,34.9,27.5,30.21,WNW,284,8.0,9.0,74,0.00,,CLR,0.00,0.00,VWS V14.01,2013-01-19 08:37:00,
2013-01-19 02:42:00,34.9,27.8,30.21,West,271,3.0,7.0,75,0.00,,CLR,0.00,0.00,VWS V14.01,2013-01-19 08:42:00,
2013-01-19 02:44:00,34.7,27.6,30.20,West,277,9.0,9.0,75,0.00,,CLR,0.00,0.00,VWS V14.01,2013-01-19 08:44:00,
2013-01-19 02:46:00,34.7,27.6,30.20,WNW,282,6.0,7.0,75,0.00,,CLR,0.00,0.00,VWS V14.01,2013-01-19 08:46:00,
2013-01-19 02:47:00,34.7,27.6,30.20,WNW,283,7.0,8.0,75,0.00,,CLR,0.00,0.00,VWS V14.01,2013-01-19 08:47:00,
2013-01-19 02:48:00,34.7,27.6,30.20,WNW,286,5.0,7.0,75,0.00,,CLR,0.00,0.00,VWS V14.01,2013-01-19 08:48:00,
2013-01-19 02:49:00,34.9,27.5,30.20,WNW,292,3.0,8.0,74,0.00,,CLR,0.00,0.00,VWS V14.01,2013-01-19 08:49:00,
2013-01-19 02:50:00,34.7,27.6,30.20,WNW,289,13.0,13.0,75,0.00,,CLR,0.00,0.00,VWS V14.01,2013-01-19 08:50:00,
2013-01-19 02:51:00,34.7,27.6,30.20,WNW,283,6.0,13.0,75,0.00,,CLR,0.00,0.00,VWS V14.01,2013-01-19 08:51:00,
2013-01-19 02:52:00,34.7,27.6,30.20,WNW,296,3.0,10.0,75,0.00,,CLR,0.00,0.00,VWS V14.01,2013-01-19 08:52:00,
2013-01-19 02:53:00,34.7,27.6,30.20,WNW,292,5.0,8.0,75,0.00,,CLR,0.00,0.00,VWS V14.01,2013-01-19 08:53:00,
2013-01-19 02:54:00,34.9,27.8,30.20,West,268,7.0,9.0,75,0.00,,CLR,0.00,0.00,VWS V14.01,2013-01-19 08:54:00,
2013-01-19 02:55:00,34.7,27.6,30.20,WNW,302,6.0,9.0,75,0.00,,CLR,0.00,0.00,VWS V14.01,2013-01-19 08:55:00,
2013-01-19 02:56:00,34.7,27.6,30.20,WNW,291,10.0,10.0,75,0.00,,CLR,0.00,0.00,VWS V14.01,2013-01-19 08:56:00,
2013-01-19 02:57:00,34.7,27.3,30.20,WNW,289,8.0,10.0,74,0.00,,CLR,0.00,0.00,VWS V14.01,2013-01-19 08:57:00,
2013-01-19 02:58:00,34.7,27.6,30.20,NW,304,6.0,12.0,75,0.00,,CLR,0.00,0.00,VWS V14.01,2013-01-19 08:58:00,
2013-01-19 02:59:00,34.7,27.6,30.20,WNW,296,6.0,9.0,75,0.00,,CLR,0.00,0.00,VWS V14.01,2013-01-19 08:59:00,
2013-01-19 03:00:00,34.7,27.6,30.20,NW,314,4.0,9.0,75,0.00,,CLR,0.00,0.00,VWS V14.01,2013-01-19 09:00:00,
2013-01-19 03:01:00,34.7,27.6,30.20,WNW,297,7.0,9.0,75,0.00,,CLR,0.00,0.00,VWS V14.01,2013-01-19 09:01:00,
2013-01-19 03:02:00,34.7,27.6,30.20,West,279,10.0,10.0,75,0.00,,CLR,0.00,0.00,VWS V14.01,2013-01-19 09:02:00,
2013-01-19 03:03:00,34.7,27.6,30.20,WNW,300,8.0,11.0,75,0.00,,CLR,0.00,0.00,VWS V14.01,2013-01-19 09:03:00,
2013-01-19 03:04:00,34.7,27.6,30.20,WNW,297,5.0,8.0,75,0.00,,CLR,0.00,0.00,VWS V14.01,2013-01-19 09:04:00,
2013-01-19 03:05:00,34.7,27.6,30.20,WNW,294,4.0,8.0,75,0.00,,CLR,0.00,0.00,VWS V14.01,2013-01-19 09:05:00,
2013-01-19 03:06:00,34.7,27.6,30.20,WNW,290,11.0,11.0,75,0.00,,CLR,0.00,0.00,VWS V14.01,2013-01-19 09:06:00,
2013-01-19 03:07:00,34.7,27.6,30.19,WNW,282,6.0,12.0,75,0.00,,CLR,0.00,0.00,VWS V14.01,2013-01-19 09:07:00,
2013-01-19 03:09:00,34.7,27.6,30.19,WNW,301,7.0,9.0,75,0.00,,CLR,0.00,0.00,VWS V14.01,2013-01-19 09:09:00,
2013-01-19 03:10:00,34.7,27.6,30.20,WNW,295,7.0,8.0,75,0.00,,CLR,0.00,0.00,VWS V14.01,2013-01-19 09:10:00,
2013-01-19 03:11:00,34.7,27.6,30.19,WNW,300,9.0,9.0,75,0.00,,CLR,0.00,0.00,VWS V14.01,2013-01-19 09:11:00,
2013-01-19 03:12:00,34.7,27.6,30.19,WNW,295,7.0,9.0,75,0.00,,CLR,0.00,0.00,VWS V14.01,2013-01-19 09:12:00,
2013-01-19 03:14:00,34.7,27.6,30.19,WNW,296,8.0,9.0,75,0.00,,CLR,0.00,0.00,VWS V14.01,2013-01-19 09:14:00,
2013-01-19 03:15:00,34.7,27.6,30.20,WNW,290,7.0,8.0,75,0.00,,CLR,0.00,0.00,VWS V14.01,2013-01-19 09:15:00,
2013-01-19 03:16:00,34.7,27.6,30.19,West,276,10.0,11.0,75,0.00,,CLR,0.00,0.00,VWS V14.01,2013-01-19 09:16:00,
2013-01-19 03:17:00,34.7,27.6,30.19,WNW,286,5.0,10.0,75,0.00,,CLR,0.00,0.00,VWS V14.01,2013-01-19 09:17:00,
2013-01-19 03:18:00,34.7,27.6,30.19,West,281,7.0,9.0,75,0.00,,CLR,0.00,0.00,VWS V14.01,2013-01-19 09:18:00,
2013-01-19 03:19:00,34.7,27.6,30.19,WNW,292,9.0,10.0,75,0.00,,CLR,0.00,0.00,VWS V14.01,2013-01-19 09:19:00,
2013-01-19 03:20:00,34.7,27.6,30.19,WNW,292,6.0,9.0,75,0.00,,CLR,0.00,0.00,VWS V14.01,2013-01-19 09:20:00,
2013-01-19 03:21:00,34.7,27.6,30.19,West,279,12.0,12.0,75,0.00,,CLR,0.00,0.00,VWS V14.01,2013-01-19 09:21:00,
2013-01-19 03:22:00,34.7,27.9,30.19,WNW,288,5.0,12.0,76,0.00,,CLR,0.00,0.00,VWS V14.01,2013-01-19 09:22:00,
2013-01-19 03:23:00,34.7,27.6,30.19,WNW,297,3.0,7.0,75,0.00,,CLR,0.00,0.00,VWS V14.01,2013-01-19 09:23:00,
2013-01-19 03:24:00,34.7,27.6,30.19,WNW,288,8.0,9.0,75,0.00,,CLR,0.00,0.00,VWS V14.01,2013-01-19 09:24:00,
2013-01-19 03:25:00,34.7,27.6,30.19,WNW,300,4.0,9.0,75,0.00,,CLR,0.00,0.00,VWS V14.01,2013-01-19 09:25:00,
2013-01-19 03:26:00,34.7,27.6,30.19,WNW,294,5.0,9.0,75,0.00,,CLR,0.00,0.00,VWS V14.01,2013-01-19 09:26:00,
2013-01-19 03:27:00,34.7,27.6,30.19,West,275,11.0,11.0,75,0.00,,CLR,0.00,0.00,VWS V14.01,2013-01-19 09:27:00,
2013-01-19 03:28:00,34.7,27.9,30.19,WNW,298,7.0,11.0,76,0.00,,CLR,0.00,0.00,VWS V14.01,2013-01-19 09:28:00,
2013-01-19 03:29:00,34.7,27.9,30.19,WNW,288,9.0,9.0,76,0.00,,CLR,0.00,0.00,VWS V14.01,2013-01-19 09:29:00,
2013-01-19 03:30:00,34.7,27.9,30.19,WNW,302,5.0,9.0,76,0.00,,CLR,0.00,0.00,VWS V14.01,2013-01-19 09:30:00,
2013-01-19 03:31:00,34.7,27.9,30.19,WNW,294,8.0,11.0,76,0.00,,CLR,0.00,0.00,VWS V14.01,2013-01-19 09:31:00,
2013-01-19 03:32:00,34.7,27.9,30.19,NW,304,8.0,12.0,76,0.00,,CLR,0.00,0.00,VWS V14.01,2013-01-19 09:32:00,
2013-01-19 03:33:00,34.7,27.9,30.19,WSW,258,11.0,11.0,76,0.00,,CLR,0.00,0.00,VWS V14.01,2013-01-19 09:33:00,
2013-01-19 03:34:00,34.7,27.0,30.19,WNW,292,6.0,11.0,73,0.00,,CLR,0.00,0.00,VWS V14.01,2013-01-19 09:34:00,
2013-01-19 03:35:00,34.7,27.9,30.19,WNW,286,7.0,7.0,76,0.00,,CLR,0.00,0.00,VWS V14.01,2013-01-19 09:35:00,
2013-01-19 03:36:00,34.7,27.9,30.19,WNW,290,6.0,8.0,76,0.00,,CLR,0.00,0.00,VWS V14.01,2013-01-19 09:36:00,
2013-01-19 03:37:00,34.7,27.9,30.19,WNW,291,6.0,9.0,76,0.00,,CLR,0.00,0.00,VWS V14.01,2013-01-19 09:37:00,
2013-01-19 03:38:00,34.7,27.6,30.18,WNW,284,8.0,9.0,75,0.00,,CLR,0.00,0.00,VWS V14.01,2013-01-19 09:38:00,
2013-01-19 03:39:00,34.7,27.9,30.18,WNW,286,5.0,10.0,76,0.00,,CLR,0.00,0.00,VWS V14.01,2013-01-19 09:39:00,
2013-01-19 03:40:00,34.7,27.9,30.18,WNW,295,6.0,11.0,76,0.00,,CLR,0.00,0.00,VWS V14.01,2013-01-19 09:40:00,
2013-01-19 03:41:00,34.7,27.9,30.19,WNW,292,8.0,14.0,76,0.00,,CLR,0.00,0.00,VWS V14.01,2013-01-19 09:41:00,
2013-01-19 03:42:00,34.7,27.9,30.19,WNW,287,7.0,9.0,76,0.00,,CLR,0.00,0.00,VWS V14.01,2013-01-19 09:42:00,
2013-01-19 03:44:00,34.7,27.9,30.18,WNW,291,8.0,8.0,76,0.00,,CLR,0.00,0.00,VWS V14.01,2013-01-19 09:44:00,
2013-01-19 03:46:00,34.7,27.9,30.18,NW,311,6.0,9.0,76,0.00,,CLR,0.00,0.00,VWS V14.01,2013-01-19 09:46:00,
2013-01-19 03:47:00,34.7,27.9,30.18,WNW,286,5.0,9.0,76,0.00,,CLR,0.00,0.00,VWS V14.01,2013-01-19 09:47:00,
2013-01-19 03:48:00,34.7,27.9,30.18,WNW,291,7.0,10.0,76,0.00,,CLR,0.00,0.00,VWS V14.01,2013-01-19 09:48:00,
2013-01-19 03:49:00,34.7,27.9,30.18,WNW,286,8.0,11.0,76,0.00,,CLR,0.00,0.00,VWS V14.01,2013-01-19 09:49:00,
2013-01-19 03:54:00,34.7,27.9,30.18,WNW,292,5.0,10.0,76,0.00,,CLR,0.00,0.00,VWS V14.01,2013-01-19 09:54:00,
2013-01-19 03:55:00,34.6,27.8,30.18,WNW,298,8.0,8.0,76,0.00,,CLR,0.00,0.00,VWS V14.01,2013-01-19 09:55:00,
2013-01-19 03:56:00,34.7,27.9,30.18,WNW,294,7.0,9.0,76,0.00,,CLR,0.00,0.00,VWS V14.01,2013-01-19 09:56:00,
2013-01-19 03:57:00,34.6,27.8,30.18,WNW,293,6.0,13.0,76,0.00,,CLR,0.00,0.00,VWS V14.01,2013-01-19 09:57:00,
2013-01-19 03:59:00,34.7,27.9,30.17,WNW,290,5.0,8.0,76,0.00,,CLR,0.00,0.00,VWS V14.01,2013-01-19 09:59:00,
2013-01-19 04:01:00,34.7,27.9,30.18,WNW,298,6.0,6.0,76,0.00,,CLR,0.00,0.00,VWS V14.01,2013-01-19 10:01:00,
2013-01-19 04:02:00,34.7,27.9,30.18,WNW,293,8.0,11.0,76,0.00,,CLR,0.00,0.00,VWS V14.01,2013-01-19 10:02:00,
2013-01-19 04:03:00,34.7,27.9,30.18,WNW,288,9.0,9.0,76,0.00,,CLR,0.00,0.00,VWS V14.01,2013-01-19 10:03:00,
2013-01-19 04:04:00,34.7,27.9,30.18,WNW,283,10.0,10.0,76,0.00,,CLR,0.00,0.00,VWS V14.01,2013-01-19 10:04:00,
2013-01-19 04:05:00,34.7,27.9,30.18,WNW,284,7.0,11.0,76,0.00,,CLR,0.00,0.00,VWS V14.01,2013-01-19 10:05:00,
2013-01-19 04:06:00,34.7,27.9,30.18,West,277,12.0,12.0,76,0.00,,CLR,0.00,0.00,VWS V14.01,2013-01-19 10:06:00,
2013-01-19 04:07:00,34.9,28.1,30.18,WNW,298,8.0,12.0,76,0.00,,CLR,0.00,0.00,VWS V14.01,2013-01-19 10:07:00,
2013-01-19 04:09:00,34.6,27.8,30.18,WNW,297,7.0,9.0,76,0.00,,CLR,0.00,0.00,VWS V14.01,2013-01-19 10:09:00,
2013-01-19 04:11:00,34.9,28.1,30.17,WNW,283,12.0,13.0,76,0.00,,CLR,0.00,0.00,VWS V14.01,2013-01-19 10:11:00,
2013-01-19 04:12:00,34.9,27.8,30.17,NW,304,7.0,12.0,75,0.00,,CLR,0.00,0.00,VWS V14.01,2013-01-19 10:12:00,
2013-01-19 04:13:00,34.9,27.8,30.17,WNW,290,7.0,10.0,75,0.00,,CLR,0.00,0.00,VWS V14.01,2013-01-19 10:13:00,
2013-01-19 04:15:00,34.9,27.8,30.17,WNW,289,7.0,8.0,75,0.00,,CLR,0.00,0.00,VWS V14.01,2013-01-19 10:15:00,
2013-01-19 04:18:00,34.9,27.8,30.17,WNW,291,7.0,12.0,75,0.00,,CLR,0.00,0.00,VWS V14.01,2013-01-19 10:18:00,
2013-01-19 04:20:00,34.9,28.1,30.18,WNW,298,8.0,12.0,76,0.00,,CLR,0.00,0.00,VWS V14.01,2013-01-19 10:20:00,
2013-01-19 04:23:00,34.9,28.1,30.17,WNW,284,8.0,10.0,76,0.00,,CLR,0.00,0.00,VWS V14.01,2013-01-19 10:23:00,
2013-01-19 04:27:00,34.9,27.8,30.17,WNW,296,8.0,9.0,75,0.00,,CLR,0.00,0.00,VWS V14.01,2013-01-19 10:27:00,
2013-01-19 04:28:00,34.9,28.1,30.17,WNW,292,6.0,9.0,76,0.00,,CLR,0.00,0.00,VWS V14.01,2013-01-19 10:28:00,
2013-01-19 04:29:00,34.9,28.1,30.17,West,277,10.0,10.0,76,0.00,,CLR,0.00,0.00,VWS V14.01,2013-01-19 10:29:00,
2013-01-19 04:30:00,34.9,28.1,30.17,West,280,5.0,10.0,76,0.00,,CLR,0.00,0.00,VWS V14.01,2013-01-19 10:30:00,
2013-01-19 04:32:00,34.9,28.1,30.17,WNW,298,12.0,13.0,76,0.00,,CLR,0.00,0.00,VWS V14.01,2013-01-19 10:32:00,
2013-01-19 04:33:00,34.9,28.1,30.17,WNW,286,9.0,14.0,76,0.00,,CLR,0.00,0.00,VWS V14.01,2013-01-19 10:33:00,
2013-01-19 04:35:00,34.9,28.1,30.17,WNW,288,7.0,10.0,76,0.00,,CLR,0.00,0.00,VWS V14.01,2013-01-19 10:35:00,
2013-01-19 04:37:00,34.9,28.1,30.17,WNW,296,8.0,9.0,76,0.00,,CLR,0.00,0.00,VWS V14.01,2013-01-19 10:37:00,
2013-01-19 04:38:00,34.9,28.1,30.17,West,281,7.0,8.0,76,0.00,,CLR,0.00,0.00,VWS V14.01,2013-01-19 10:38:00,
2013-01-19 04:39:00,34.9,28.1,30.17,WNW,294,6.0,14.0,76,0.00,,CLR,0.00,0.00,VWS V14.01,2013-01-19 10:39:00,
2013-01-19 04:43:00,34.9,28.1,30.17,West,279,9.0,11.0,76,0.00,,CLR,0.00,0.00,VWS V14.01,2013-01-19 10:43:00,
2013-01-19 04:44:00,34.9,28.1,30.17,WNW,301,9.0,12.0,76,0.00,,CLR,0.00,0.00,VWS V14.01,2013-01-19 10:44:00,
2013-01-19 04:45:00,34.9,28.1,30.17,WNW,287,7.0,11.0,76,0.00,,CLR,0.00,0.00,VWS V14.01,2013-01-19 10:45:00,
2013-01-19 04:47:00,34.9,28.1,30.17,WNW,288,7.0,10.0,76,0.00,,CLR,0.00,0.00,VWS V14.01,2013-01-19 10:47:00,
2013-01-19 04:49:00,34.9,28.1,30.17,WNW,296,6.0,11.0,76,0.00,,CLR,0.00,0.00,VWS V14.01,2013-01-19 10:49:00,
2013-01-19 04:51:00,34.9,28.1,30.17,West,277,9.0,11.0,76,0.00,,CLR,0.00,0.00,VWS V14.01,2013-01-19 10:51:00,
2013-01-19 04:54:00,34.9,28.1,30.17,West,273,11.0,11.0,76,0.00,,CLR,0.00,0.00,VWS V14.01,2013-01-19 10:54:00,
2013-01-19 04:57:00,34.9,28.1,30.17,WNW,288,8.0,11.0,76,0.00,,CLR,0.00,0.00,VWS V14.01,2013-01-19 10:57:00,
2013-01-19 04:59:00,34.9,28.1,30.17,WNW,286,9.0,11.0,76,0.00,,CLR,0.00,0.00,VWS V14.01,2013-01-19 10:59:00,
2013-01-19 05:00:00,34.9,28.1,30.17,WNW,286,12.0,12.0,76,0.00,,CLR,0.00,0.00,VWS V14.01,2013-01-19 11:00:00,
2013-01-19 05:05:00,34.9,28.1,30.17,West,277,8.0,12.0,76,0.00,,CLR,0.00,0.00,VWS V14.01,2013-01-19 11:05:00,
2013-01-19 05:10:00,34.9,28.1,30.17,WNW,288,8.0,11.0,76,0.00,,CLR,0.00,0.00,VWS V14.01,2013-01-19 11:10:00,
2013-01-19 06:34:00,35.3,27.9,30.14,WNW,286,5.0,9.0,74,0.00,,CLR,0.00,0.00,VWS V14.01,2013-01-19 12:34:00,
2013-01-19 06:35:00,35.3,27.9,30.13,WNW,298,6.0,10.0,74,0.00,,CLR,0.00,0.00,VWS V14.01,2013-01-19 12:35:00,
2013-01-19 06:36:00,35.3,27.9,30.13,WNW,290,9.0,9.0,74,0.00,,CLR,0.00,0.00,VWS V14.01,2013-01-19 12:36:00,
2013-01-19 06:37:00,35.3,27.9,30.13,WNW,292,7.0,9.0,74,0.00,,CLR,0.00,0.00,VWS V14.01,2013-01-19 12:37:00,
2013-01-19 06:38:00,35.3,27.9,30.13,WNW,292,8.0,8.0,74,0.00,,CLR,0.00,0.00,VWS V14.01,2013-01-19 12:38:00,
2013-01-19 06:39:00,35.3,27.9,30.13,WNW,296,4.0,8.0,74,0.00,,CLR,0.00,0.00,VWS V14.01,2013-01-19 12:39:00,
2013-01-19 06:40:00,35.3,27.9,30.13,WNW,302,5.0,6.0,74,0.00,,CLR,0.00,0.00,VWS V14.01,2013-01-19 12:40:00,
2013-01-19 06:41:00,35.3,27.9,30.13,WNW,292,5.0,11.0,74,0.00,,CLR,0.00,0.00,VWS V14.01,2013-01-19 12:41:00,
2013-01-19 06:42:00,35.3,27.9,30.13,WNW,298,10.0,10.0,74,0.00,,CLR,0.00,0.00,VWS V14.01,2013-01-19 12:42:00,
2013-01-19 06:43:00,35.3,27.9,30.13,WNW,301,6.0,11.0,74,0.00,,CLR,0.00,0.00,VWS V14.01,2013-01-19 12:43:00,
2013-01-19 06:44:00,35.3,27.9,30.13,WNW,298,7.0,8.0,74,0.00,,CLR,0.00,0.00,VWS V14.01,2013-01-19 12:44:00,
2013-01-19 06:45:00,35.3,27.9,30.13,WNW,291,4.0,13.0,74,0.00,,CLR,0.00,0.00,VWS V14.01,2013-01-19 12:45:00,
2013-01-19 06:46:00,35.3,27.9,30.13,West,280,11.0,11.0,74,0.00,,CLR,0.00,0.00,VWS V14.01,2013-01-19 12:46:00,
2013-01-19 06:47:00,35.3,27.5,30.13,WNW,285,9.0,11.0,73,0.00,,CLR,0.00,0.00,VWS V14.01,2013-01-19 12:47:00,
2013-01-19 06:48:00,35.3,27.5,30.13,West,274,16.0,16.0,73,0.00,,CLR,0.00,0.00,VWS V14.01,2013-01-19 12:48:00,
2013-01-19 06:49:00,35.3,27.5,30.13,WNW,302,7.0,16.0,73,0.00,,CLR,0.00,0.00,VWS V14.01,2013-01-19 12:49:00,
2013-01-19 06:50:00,35.3,27.5,30.13,WNW,286,6.0,9.0,73,0.00,,CLR,0.00,0.00,VWS V14.01,2013-01-19 12:50:00,
2013-01-19 06:51:00,35.3,27.5,30.13,WNW,294,12.0,12.0,73,0.00,,CLR,0.00,0.00,VWS V14.01,2013-01-19 12:51:00,
2013-01-19 06:52:00,35.3,27.5,30.13,NW,306,6.0,12.0,73,0.00,,CLR,0.00,0.00,VWS V14.01,2013-01-19 12:52:00,
2013-01-19 06:54:00,35.3,27.5,30.13,WNW,286,8.0,8.0,73,0.00,,CLR,0.00,0.00,VWS V14.01,2013-01-19 12:54:00,
2013-01-19 06:55:00,35.3,27.5,30.13,WNW,287,6.0,8.0,73,0.00,,CLR,0.00,0.00,VWS V14.01,2013-01-19 12:55:00,
2013-01-19 06:56:00,35.3,27.5,30.13,WNW,296,15.0,15.0,73,0.00,,CLR,0.00,0.00,VWS V14.01,2013-01-19 12:56:00,
2013-01-19 06:57:00,35.3,27.9,30.12,West,273,10.0,16.0,74,0.00,,CLR,0.00,0.00,VWS V14.01,2013-01-19 12:57:00,
2013-01-19 06:58:00,35.3,27.5,30.12,WNW,287,10.0,10.0,73,0.00,,CLR,0.00,0.00,VWS V14.01,2013-01-19 12:58:00,
2013-01-19 06:59:00,35.3,27.5,30.12,WNW,295,7.0,11.0,73,0.00,,CLR,0.00,0.00,VWS V14.01,2013-01-19 12:59:00,
2013-01-19 07:00:00,35.3,27.5,30.12,WNW,289,6.0,9.0,73,0.00,,CLR,0.00,5.00,VWS V14.01,2013-01-19 13:00:00,
2013-01-19 07:01:00,35.3,27.5,30.12,WNW,289,5.0,7.0,73,0.00,,CLR,0.00,5.00,VWS V14.01,2013-01-19 13:01:00,
2013-01-19 07:02:00,35.3,27.5,30.12,WNW,298,4.0,7.0,73,0.00,,CLR,0.00,5.00,VWS V14.01,2013-01-19 13:02:00,
2013-01-19 07:03:00,35.3,27.5,30.12,WNW,296,6.0,8.0,73,0.00,,CLR,0.00,5.00,VWS V14.01,2013-01-19 13:03:00,
2013-01-19 07:04:00,35.3,27.5,30.12,NW,316,6.0,10.0,73,0.00,,CLR,0.00,7.00,VWS V14.01,2013-01-19 13:04:00,
2013-01-19 07:05:00,35.3,27.5,30.12,NW,309,6.0,8.0,73,0.00,,CLR,0.00,7.00,VWS V14.01,2013-01-19 13:05:00,
2013-01-19 07:06:00,35.3,27.5,30.12,WNW,286,7.0,7.0,73,0.00,,CLR,0.00,7.00,VWS V14.01,2013-01-19 13:06:00,
2013-01-19 07:07:00,35.3,27.9,30.12,WNW,298,8.0,12.0,74,0.00,,CLR,0.00,7.00,VWS V14.01,2013-01-19 13:07:00,
2013-01-19 07:08:00,35.3,27.5,30.12,WNW,299,5.0,10.0,73,0.00,,CLR,0.00,9.00,VWS V14.01,2013-01-19 13:08:00,
2013-01-19 07:09:00,35.3,27.5,30.12,West,280,3.0,7.0,73,0.00,,CLR,0.00,9.00,VWS V14.01,2013-01-19 13:09:00,
2013-01-19 07:10:00,35.3,27.5,30.12,NNW,332,8.0,8.0,73,0.00,,CLR,0.00,9.00,VWS V14.01,2013-01-19 13:10:00,
2013-01-19 07:11:00,35.3,27.5,30.12,WNW,296,7.0,9.0,73,0.00,,CLR,0.00,9.00,VWS V14.01,2013-01-19 13:11:00,
2013-01-19 07:12:00,35.3,27.5,30.12,WNW,292,7.0,8.0,73,0.00,,CLR,0.00,11.00,VWS V14.01,2013-01-19 13:12:00,
2013-01-19 07:13:00,35.3,27.5,30.12,NW,307,9.0,10.0,73,0.00,,CLR,0.00,11.00,VWS V14.01,2013-01-19 13:13:00,
2013-01-19 07:14:00,35.3,27.5,30.12,West,281,5.0,9.0,73,0.00,,CLR,0.00,11.00,VWS V14.01,2013-01-19 13:14:00,
2013-01-19 07:15:00,35.3,27.5,30.12,WNW,284,6.0,10.0,73,0.00,,CLR,0.00,12.00,VWS V14.01,2013-01-19 13:15:00,
2013-01-19 07:16:00,35.3,27.5,30.12,WNW,301,2.0,11.0,73,0.00,,CLR,0.00,12.00,VWS V14.01,2013-01-19 13:16:00,
2013-01-19 07:17:00,35.3,27.5,30.12,WNW,296,6.0,13.0,73,0.00,,CLR,0.00,12.00,VWS V14.01,2013-01-19 13:17:00,
2013-01-19 07:18:00,35.3,27.5,30.12,WNW,296,7.0,11.0,73,0.00,,CLR,0.00,14.00,VWS V14.01,2013-01-19 13:18:00,
2013-01-19 07:20:00,35.5,27.7,30.12,NW,310,10.0,10.0,73,0.00,,CLR,0.00,16.00,VWS V14.01,2013-01-19 13:20:00,
2013-01-19 07:21:00,35.5,27.7,30.12,WNW,292,6.0,10.0,73,0.00,,CLR,0.00,16.00,VWS V14.01,2013-01-19 13:21:00,
2013-01-19 07:22:00,35.5,27.7,30.12,NW,305,4.0,9.0,73,0.00,,CLR,0.00,18.00,VWS V14.01,2013-01-19 13:22:00,
2013-01-19 07:23:00,35.5,27.7,30.12,WNW,291,5.0,10.0,73,0.00,,CLR,0.00,18.00,VWS V14.01,2013-01-19 13:23:00,
2013-01-19 07:24:00,35.5,27.7,30.12,NW,309,7.0,11.0,73,0.00,,CLR,0.00,19.00,VWS V14.01,2013-01-19 13:24:00,
2013-01-19 07:25:00,35.5,27.7,30.12,WNW,300,6.0,15.0,73,0.00,,CLR,0.00,21.00,VWS V14.01,2013-01-19 13:25:00,
2013-01-19 07:26:00,35.5,27.7,30.12,WNW,295,9.0,9.0,73,0.00,,CLR,0.00,40.00,VWS V14.01,2013-01-19 13:26:00,
2013-01-19 07:27:00,35.5,27.7,30.12,WNW,302,9.0,10.0,73,0.00,,CLR,0.00,49.00,VWS V14.01,2013-01-19 13:27:00,
2013-01-19 07:28:00,35.5,27.7,30.11,WNW,294,9.0,9.0,73,0.00,,CLR,0.00,49.00,VWS V14.01,2013-01-19 13:28:00,
2013-01-19 07:29:00,35.5,27.7,30.12,NW,308,6.0,11.0,73,0.00,,CLR,0.00,46.00,VWS V14.01,2013-01-19 13:29:00,
2013-01-19 07:30:00,35.6,27.8,30.11,WNW,282,5.0,8.0,73,0.00,,CLR,0.00,47.00,VWS V14.01,2013-01-19 13:30:00,
2013-01-19 07:31:00,35.6,27.8,30.12,WNW,296,11.0,11.0,73,0.00,,CLR,0.00,47.00,VWS V14.01,2013-01-19 13:31:00,
2013-01-19 07:32:00,35.6,27.8,30.12,WNW,291,5.0,11.0,73,0.00,,CLR,0.00,53.00,VWS V14.01,2013-01-19 13:32:00,
2013-01-19 07:33:00,35.6,27.8,30.12,WNW,293,6.0,10.0,73,0.00,,CLR,0.00,54.00,VWS V14.01,2013-01-19 13:33:00,
2013-01-19 07:34:00,35.8,28.0,30.11,WNW,298,7.0,12.0,73,0.00,,CLR,0.00,56.00,VWS V14.01,2013-01-19 13:34:00,
2013-01-19 07:35:00,35.8,28.0,30.12,West,267,8.0,14.0,73,0.00,,CLR,0.00,60.00,VWS V14.01,2013-01-19 13:35:00,
2013-01-19 07:36:00,35.8,28.0,30.11,WNW,285,4.0,9.0,73,0.00,,CLR,0.00,63.00,VWS V14.01,2013-01-19 13:36:00,
2013-01-19 07:37:00,35.8,28.0,30.12,NW,306,4.0,8.0,73,0.00,,CLR,0.00,69.00,VWS V14.01,2013-01-19 13:37:00,
2013-01-19 07:38:00,35.8,28.0,30.12,WNW,300,6.0,8.0,73,0.00,,CLR,0.00,70.00,VWS V14.01,2013-01-19 13:38:00,
2013-01-19 07:39:00,35.8,28.0,30.12,WNW,294,4.0,7.0,73,0.00,,CLR,0.00,74.00,VWS V14.01,2013-01-19 13:39:00,
2013-01-19 07:40:00,35.8,28.0,30.12,NNW,334,9.0,9.0,73,0.00,,CLR,0.00,76.00,VWS V14.01,2013-01-19 13:40:00,
2013-01-19 07:41:00,35.9,28.1,30.12,WNW,292,6.0,11.0,73,0.00,,CLR,0.00,77.00,VWS V14.01,2013-01-19 13:41:00,
2013-01-19 07:42:00,35.9,28.1,30.12,WNW,286,7.0,7.0,73,0.00,,CLR,0.00,81.00,VWS V14.01,2013-01-19 13:42:00,
2013-01-19 07:43:00,35.9,28.1,30.12,WNW,292,5.0,7.0,73,0.00,,CLR,0.00,86.00,VWS V14.01,2013-01-19 13:43:00,
2013-01-19 07:44:00,35.9,28.1,30.12,WNW,289,7.0,7.0,73,0.00,,CLR,0.00,90.00,VWS V14.01,2013-01-19 13:44:00,
2013-01-19 07:45:00,35.9,27.8,30.12,NW,319,6.0,9.0,72,0.00,,CLR,0.00,91.00,VWS V14.01,2013-01-19 13:45:00,
2013-01-19 07:46:00,36.0,27.9,30.12,NW,324,8.0,8.0,72,0.00,,CLR,0.00,91.00,VWS V14.01,2013-01-19 13:46:00,
2013-01-19 07:47:00,36.0,27.9,30.12,NW,306,9.0,11.0,72,0.00,,CLR,0.00,97.00,VWS V14.01,2013-01-19 13:47:00,
2013-01-19 07:48:00,36.0,27.9,30.12,WNW,294,5.0,12.0,72,0.00,,CLR,0.00,102.00,VWS V14.01,2013-01-19 13:48:00,
2013-01-19 07:49:00,36.0,27.9,30.12,WNW,284,6.0,10.0,72,0.00,,CLR,0.00,105.00,VWS V14.01,2013-01-19 13:49:00,
2013-01-19 07:50:00,36.0,27.9,30.12,WNW,300,5.0,7.0,72,0.00,,CLR,0.00,109.00,VWS V14.01,2013-01-19 13:50:00,
2013-01-19 07:51:00,36.2,28.1,30.12,WNW,286,7.0,8.0,72,0.00,,CLR,0.00,111.00,VWS V14.01,2013-01-19 13:51:00,
2013-01-19 07:52:00,36.2,28.1,30.11,WNW,291,6.0,12.0,72,0.00,,CLR,0.00,113.00,VWS V14.01,2013-01-19 13:52:00,
2013-01-19 07:53:00,36.2,28.1,30.12,WNW,296,6.0,10.0,72,0.00,,CLR,0.00,114.00,VWS V14.01,2013-01-19 13:53:00,
2013-01-19 07:54:00,36.2,28.1,30.12,WNW,285,8.0,14.0,72,0.00,,CLR,0.00,120.00,VWS V14.01,2013-01-19 13:54:00,
2013-01-19 07:55:00,36.2,28.1,30.12,WNW,300,4.0,10.0,72,0.00,,CLR,0.00,125.00,VWS V14.01,2013-01-19 13:55:00,
2013-01-19 07:56:00,36.3,28.1,30.12,WNW,294,8.0,8.0,72,0.00,,CLR,0.00,128.00,VWS V14.01,2013-01-19 13:56:00,
2013-01-19 07:57:00,36.3,28.1,30.12,WNW,298,5.0,11.0,72,0.00,,CLR,0.00,130.00,VWS V14.01,2013-01-19 13:57:00,
2013-01-19 07:58:00,36.3,28.1,30.12,WNW,302,8.0,15.0,72,0.00,,CLR,0.00,134.00,VWS V14.01,2013-01-19 13:58:00,
2013-01-19 07:59:00,36.3,28.1,30.12,WNW,289,8.0,16.0,72,0.00,,CLR,0.00,134.00,VWS V14.01,2013-01-19 13:59:00,
2013-01-19 08:00:00,36.5,28.0,30.12,WNW,284,4.0,10.0,71,0.00,,CLR,0.00,137.00,VWS V14.01,2013-01-19 14:00:00,
2013-01-19 08:01:00,36.5,28.0,30.12,NW,309,11.0,11.0,71,0.00,,CLR,0.00,142.00,VWS V14.01,2013-01-19 14:01:00,
2013-01-19 08:02:00,36.5,28.0,30.11,NW,319,7.0,13.0,71,0.00,,CLR,0.00,144.00,VWS V14.01,2013-01-19 14:02:00,
2013-01-19 08:03:00,36.5,28.0,30.11,WNW,294,6.0,10.0,71,0.00,,CLR,0.00,151.00,VWS V14.01,2013-01-19 14:03:00,
2013-01-19 08:04:00,36.6,28.1,30.12,NW,306,7.0,9.0,71,0.00,,CLR,0.00,155.00,VWS V14.01,2013-01-19 14:04:00,
2013-01-19 08:05:00,36.6,28.1,30.11,WNW,299,4.0,10.0,71,0.00,,CLR,0.00,155.00,VWS V14.01,2013-01-19 14:05:00,
2013-01-19 08:06:00,36.6,28.1,30.12,WNW,302,5.0,9.0,71,0.00,,CLR,0.00,158.00,VWS V14.01,2013-01-19 14:06:00,
2013-01-19 08:07:00,36.8,28.3,30.12,NW,306,8.0,11.0,71,0.00,,CLR,0.00,165.00,VWS V14.01,2013-01-19 14:07:00,
2013-01-19 08:08:00,36.8,28.3,30.11,NW,322,6.0,11.0,71,0.00,,CLR,0.00,171.00,VWS V14.01,2013-01-19 14:08:00,
2013-01-19 08:09:00,36.8,28.3,30.11,WNW,292,6.0,10.0,71,0.00,,CLR,0.00,171.00,VWS V14.01,2013-01-19 14:09:00,
2013-01-19 08:10:00,36.8,28.3,30.12,NW,310,5.0,9.0,71,0.00,,CLR,0.00,176.00,VWS V14.01,2013-01-19 14:10:00,
2013-01-19 08:11:00,36.9,28.0,30.11,WNW,298,6.0,11.0,70,0.00,,CLR,0.00,176.00,VWS V14.01,2013-01-19 14:11:00,
2013-01-19 08:12:00,36.9,28.0,30.11,NW,309,8.0,12.0,70,0.00,,CLR,0.00,179.00,VWS V14.01,2013-01-19 14:12:00,
2013-01-19 08:13:00,37.0,28.1,30.11,NW,306,8.0,9.0,70,0.00,,CLR,0.00,183.00,VWS V14.01,2013-01-19 14:13:00,
2013-01-19 08:18:00,37.2,28.3,30.11,West,279,13.0,13.0,70,0.00,,CLR,0.00,195.00,VWS V14.01,2013-01-19 14:18:00,
2013-01-19 08:19:00,37.3,28.1,30.11,WNW,291,10.0,13.0,69,0.00,,CLR,0.00,199.00,VWS V14.01,2013-01-19 14:19:00,
2013-01-19 08:20:00,37.3,28.1,30.11,WNW,291,9.0,11.0,69,0.00,,CLR,0.00,200.00,VWS V14.01,2013-01-19 14:20:00,
2013-01-19 08:21:00,37.3,28.1,30.11,WNW,297,7.0,12.0,69,0.00,,CLR,0.00,204.00,VWS V14.01,2013-01-19 14:21:00,
2013-01-19 08:22:00,37.5,28.3,30.11,WNW,297,5.0,7.0,69,0.00,,CLR,0.00,207.00,VWS V14.01,2013-01-19 14:22:00,
2013-01-19 08:23:00,37.5,28.3,30.11,West,277,8.0,10.0,69,0.00,,CLR,0.00,209.00,VWS V14.01,2013-01-19 14:23:00,
2013-01-19 08:24:00,37.5,28.3,30.11,NW,304,10.0,11.0,69,0.00,,CLR,0.00,209.00,VWS V14.01,2013-01-19 14:24:00,
2013-01-19 08:25:00,37.6,28.4,30.11,NW,313,6.0,10.0,69,0.00,,CLR,0.00,211.00,VWS V14.01,2013-01-19 14:25:00,
2013-01-19 08:26:00,37.6,28.4,30.11,WNW,294,12.0,12.0,69,0.00,,CLR,0.00,213.00,VWS V14.01,2013-01-19 14:26:00,
2013-01-19 08:27:00,37.0,28.1,30.12,WNW,299,6.0,12.0,70,0.00,,CLR,0.00,185.00,VWS V14.01,2013-01-19 14:27:00,
2013-01-19 08:28:00,37.8,28.6,30.11,NNW,344,8.0,11.0,69,0.00,,CLR,0.00,214.00,VWS V14.01,2013-01-19 14:28:00,
2013-01-19 08:29:00,37.8,28.6,30.11,WNW,294,6.0,10.0,69,0.00,,CLR,0.00,211.00,VWS V14.01,2013-01-19 14:29:00,
2013-01-19 08:30:00,37.8,28.6,30.11,WNW,290,3.0,8.0,69,0.00,,CLR,0.00,216.00,VWS V14.01,2013-01-19 14:30:00,
2013-01-19 08:31:00,37.8,28.6,30.11,WNW,286,8.0,16.0,69,0.00,,CLR,0.00,213.00,VWS V14.01,2013-01-19 14:31:00,
2013-01-19 08:32:00,37.8,28.2,30.11,WNW,293,12.0,12.0,68,0.00,,CLR,0.00,220.00,VWS V14.01,2013-01-19 14:32:00,
2013-01-19 08:33:00,37.9,28.3,30.11,WNW,294,8.0,13.0,68,0.00,,CLR,0.00,218.00,VWS V14.01,2013-01-19 14:33:00,
2013-01-19 08:34:00,37.9,28.3,30.11,NW,305,5.0,9.0,68,0.00,,CLR,0.00,221.00,VWS V14.01,2013-01-19 14:34:00,
2013-01-19 08:35:00,37.9,28.3,30.11,WNW,286,7.0,9.0,68,0.00,,CLR,0.00,225.00,VWS V14.01,2013-01-19 14:35:00,
2013-01-19 08:36:00,37.9,28.3,30.11,NW,304,8.0,15.0,68,0.00,,CLR,0.00,229.00,VWS V14.01,2013-01-19 14:36:00,
2013-01-19 08:37:00,38.0,28.4,30.11,WNW,292,5.0,9.0,68,0.00,,CLR,0.00,230.00,VWS V14.01,2013-01-19 14:37:00,
2013-01-19 08:38:00,38.0,28.4,30.11,WNW,298,4.0,7.0,68,0.00,,CLR,0.00,232.00,VWS V14.01,2013-01-19 14:38:00,
2013-01-19 08:39:00,38.0,28.4,30.11,West,276,11.0,11.0,68,0.00,,CLR,0.00,236.00,VWS V14.01,2013-01-19 14:39:00,
2013-01-19 08:40:00,38.2,28.6,30.11,WNW,294,10.0,14.0,68,0.00,,CLR,0.00,237.00,VWS V14.01,2013-01-19 14:40:00,
2013-01-19 08:41:00,38.2,28.6,30.11,WNW,300,4.0,10.0,68,0.00,,CLR,0.00,241.00,VWS V14.01,2013-01-19 14:41:00,
2013-01-19 08:42:00,38.3,28.7,30.11,WNW,299,8.0,15.0,68,0.00,,CLR,0.00,243.00,VWS V14.01,2013-01-19 14:42:00,
2013-01-19 08:43:00,38.3,28.3,30.11,NW,315,6.0,10.0,67,0.00,,CLR,0.00,246.00,VWS V14.01,2013-01-19 14:43:00,
2013-01-19 08:44:00,38.3,28.3,30.11,NW,311,6.0,9.0,67,0.00,,CLR,0.00,251.00,VWS V14.01,2013-01-19 14:44:00,
2013-01-19 08:45:00,38.3,28.3,30.11,NW,306,5.0,11.0,67,0.00,,CLR,0.00,255.00,VWS V14.01,2013-01-19 14:45:00,
2013-01-19 08:46:00,38.5,28.5,30.11,NW,317,6.0,11.0,67,0.00,,CLR,0.00,257.00,VWS V14.01,2013-01-19 14:46:00,
2013-01-19 08:47:00,38.5,28.5,30.11,WNW,299,4.0,10.0,67,0.00,,CLR,0.00,257.00,VWS V14.01,2013-01-19 14:47:00,
2013-01-19 08:48:00,38.5,28.5,30.11,WNW,296,5.0,7.0,67,0.00,,CLR,0.00,264.00,VWS V14.01,2013-01-19 14:48:00,
2013-01-19 08:49:00,38.6,28.6,30.12,WNW,299,10.0,12.0,67,0.00,,CLR,0.00,264.00,VWS V14.01,2013-01-19 14:49:00,
2013-01-19 08:50:00,38.6,28.6,30.11,NW,311,10.0,11.0,67,0.00,,CLR,0.00,269.00,VWS V14.01,2013-01-19 14:50:00,
2013-01-19 08:51:00,38.6,28.6,30.12,WNW,300,7.0,10.0,67,0.00,,CLR,0.00,271.00,VWS V14.01,2013-01-19 14:51:00,
2013-01-19 08:52:00,38.8,28.8,30.11,WNW,296,8.0,13.0,67,0.00,,CLR,0.00,272.00,VWS V14.01,2013-01-19 14:52:00,
2013-01-19 08:53:00,38.8,28.8,30.11,WNW,291,13.0,16.0,67,0.00,,CLR,0.00,276.00,VWS V14.01,2013-01-19 14:53:00,
2013-01-19 08:54:00,38.8,28.8,30.11,WNW,294,6.0,13.0,67,0.00,,CLR,0.00,287.00,VWS V14.01,2013-01-19 14:54:00,
2013-01-19 08:55:00,38.9,28.9,30.11,WNW,292,7.0,10.0,67,0.00,,CLR,0.00,290.00,VWS V14.01,2013-01-19 14:55:00,
2013-01-19 08:56:00,38.9,28.9,30.11,WNW,294,10.0,10.0,67,0.00,,CLR,0.00,297.00,VWS V14.01,2013-01-19 14:56:00,
2013-01-19 08:57:00,39.1,29.1,30.11,WNW,301,5.0,10.0,67,0.00,,CLR,0.00,302.00,VWS V14.01,2013-01-19 14:57:00,
2013-01-19 08:58:00,39.1,28.7,30.11,NW,305,5.0,7.0,66,0.00,,CLR,0.00,309.00,VWS V14.01,2013-01-19 14:58:00,
2013-01-19 08:59:00,39.2,29.2,30.11,WNW,298,7.0,10.0,67,0.00,,CLR,0.00,315.00,VWS V14.01,2013-01-19 14:59:00,
2013-01-19 09:00:00,39.2,28.8,30.11,NNW,329,5.0,11.0,66,0.00,,CLR,0.00,323.00,VWS V14.01,2013-01-19 15:00:00,
2013-01-19 09:01:00,39.3,28.9,30.11,WNW,290,8.0,10.0,66,0.00,,CLR,0.00,325.00,VWS V14.01,2013-01-19 15:01:00,
2013-01-19 09:02:00,39.3,28.5,30.11,WNW,297,12.0,12.0,65,0.00,,CLR,0.00,330.00,VWS V14.01,2013-01-19 15:02:00,
2013-01-19 09:04:00,39.5,29.1,30.11,WNW,294,8.0,12.0,66,0.00,,CLR,0.00,338.00,VWS V14.01,2013-01-19 15:04:00,
2013-01-19 09:08:00,39.6,28.8,30.11,NNW,329,7.0,14.0,65,0.00,,CLR,0.00,353.00,VWS V14.01,2013-01-19 15:08:00,
2013-01-19 09:09:00,39.8,29.0,30.11,WNW,300,7.0,9.0,65,0.00,,CLR,0.00,359.00,VWS V14.01,2013-01-19 15:09:00,
2013-01-19 09:11:00,39.9,29.1,30.11,WNW,296,9.0,13.0,65,0.00,,CLR,0.00,364.00,VWS V14.01,2013-01-19 15:11:00,
2013-01-19 09:12:00,39.9,29.1,30.11,WNW,299,7.0,10.0,65,0.00,,CLR,0.00,367.00,VWS V14.01,2013-01-19 15:12:00,
2013-01-19 09:13:00,40.1,29.3,30.11,WNW,303,8.0,10.0,65,0.00,,CLR,0.00,376.00,VWS V14.01,2013-01-19 15:13:00,
2013-01-19 09:14:00,40.1,29.3,30.11,NW,313,7.0,9.0,65,0.00,,CLR,0.00,380.00,VWS V14.01,2013-01-19 15:14:00,
2013-01-19 09:16:00,39.5,29.1,30.11,WNW,295,6.0,12.0,66,0.00,,CLR,0.00,334.00,VWS V14.01,2013-01-19 15:16:00,
2013-01-19 09:19:00,40.3,29.1,30.11,WNW,302,10.0,13.0,64,0.00,,CLR,0.00,417.00,VWS V14.01,2013-01-19 15:19:00,
2013-01-19 09:22:00,39.8,29.0,30.11,WNW,300,7.0,9.0,65,0.00,,CLR,0.00,359.00,VWS V14.01,2013-01-19 15:22:00,
2013-01-19 09:24:00,40.6,29.4,30.10,NW,306,8.0,10.0,64,0.00,,CLR,0.00,415.00,VWS V14.01,2013-01-19 15:24:00,
2013-01-19 09:28:00,40.2,29.4,30.11,NNW,331,5.0,12.0,65,0.00,,CLR,0.00,388.00,VWS V14.01,2013-01-19 15:28:00,
2013-01-19 09:30:00,40.9,29.7,30.10,NW,304,6.0,9.0,64,0.00,,CLR,0.00,399.00,VWS V14.01,2013-01-19 15:30:00,
2013-01-19 09:31:00,40.9,29.3,30.10,WNW,302,10.0,13.0,63,0.00,,CLR,0.00,399.00,VWS V14.01,2013-01-19 15:31:00,
2013-01-19 09:32:00,40.9,29.3,30.11,WNW,303,8.0,15.0,63,0.00,,CLR,0.00,202.00,VWS V14.01,2013-01-19 15:32:00,
2013-01-19 09:33:00,40.9,29.3,30.10,WNW,286,7.0,11.0,63,0.00,,CLR,0.00,258.00,VWS V14.01,2013-01-19 15:33:00,
2013-01-19 09:34:00,40.5,29.3,30.11,NW,304,7.0,12.0,64,0.00,,CLR,0.00,425.00,VWS V14.01,2013-01-19 15:34:00,
2013-01-19 09:39:00,40.8,29.2,30.10,NW,304,9.0,14.0,63,0.00,,CLR,0.00,364.00,VWS V14.01,2013-01-19 15:39:00,
2013-01-19 09:43:00,41.5,29.5,30.10,WNW,297,9.0,10.0,62,0.00,,CLR,0.00,424.00,VWS V14.01,2013-01-19 15:43:00,
2013-01-19 09:47:00,40.9,29.3,30.10,WNW,289,8.0,8.0,63,0.00,,CLR,0.00,297.00,VWS V14.01,2013-01-19 15:47:00,
2013-01-19 09:52:00,41.3,29.7,30.11,WNW,289,7.0,11.0,63,0.00,,CLR,0.00,374.00,VWS V14.01,2013-01-19 15:52:00,
2013-01-19 09:55:00,42.2,30.1,30.10,NW,309,6.0,19.0,62,0.00,,CLR,0.00,109.00,VWS V14.01,2013-01-19 15:55:00,
2013-01-19 09:56:00,42.2,29.7,30.10,WNW,301,7.0,16.0,61,0.00,,CLR,0.00,109.00,VWS V14.01,2013-01-19 15:56:00,
2013-01-19 09:57:00,41.6,29.6,30.10,WNW,296,10.0,19.0,62,0.00,,CLR,0.00,427.00,VWS V14.01,2013-01-19 15:57:00,
2013-01-19 09:59:00,42.2,30.1,30.10,NW,311,7.0,13.0,62,0.00,,CLR,0.00,130.00,VWS V14.01,2013-01-19 15:59:00,
2013-01-19 10:01:00,42.3,30.2,30.10,WNW,299,9.0,12.0,62,0.00,,CLR,0.00,135.00,VWS V14.01,2013-01-19 16:01:00,
2013-01-19 10:02:00,41.9,29.9,30.10,NNW,336,8.0,9.0,62,0.00,,CLR,0.00,100.00,VWS V14.01,2013-01-19 16:02:00,
2013-01-19 10:05:00,42.5,30.4,30.09,NW,306,10.0,12.0,62,0.00,,CLR,0.00,394.00,VWS V14.01,2013-01-19 16:05:00,
2013-01-19 10:06:00,42.5,30.4,30.10,WNW,294,8.0,16.0,62,0.00,,CLR,0.00,417.00,VWS V14.01,2013-01-19 16:06:00,
2013-01-19 10:07:00,42.2,30.1,30.10,NNW,338,11.0,11.0,62,0.00,,CLR,0.00,111.00,VWS V14.01,2013-01-19 16:07:00,
2013-01-19 10:10:00,42.8,30.3,30.09,NW,313,6.0,12.0,61,0.00,,CLR,0.00,533.00,VWS V14.01,2013-01-19 16:10:00,
2013-01-19 10:12:00,42.2,30.1,30.10,NW,311,7.0,13.0,62,0.00,,CLR,0.00,130.00,VWS V14.01,2013-01-19 16:12:00,
2013-01-19 10:19:00,43.5,30.5,30.08,NW,321,8.0,8.0,60,0.00,,CLR,0.00,485.00,VWS V14.01,2013-01-19 16:19:00,
2013-01-19 10:20:00,42.5,30.0,30.10,WNW,296,7.0,10.0,61,0.00,,CLR,0.00,352.00,VWS V14.01,2013-01-19 16:20:00,
2013-01-19 10:23:00,43.6,30.6,30.08,NW,319,8.0,13.0,60,0.00,,CLR,0.00,397.00,VWS V14.01,2013-01-19 16:23:00,
2013-01-19 10:25:00,43.1,30.6,30.09,WNW,288,13.0,15.0,61,0.00,,CLR,0.00,540.00,VWS V14.01,2013-01-19 16:25:00,
2013-01-19 10:28:00,43.9,30.5,30.07,WNW,297,8.0,11.0,59,0.00,,CLR,0.00,489.00,VWS V14.01,2013-01-19 16:28:00,
2013-01-19 10:30:00,43.3,30.4,30.08,WNW,292,8.0,10.0,60,0.00,,CLR,0.00,492.00,VWS V14.01,2013-01-19 16:30:00,
2013-01-19 10:32:00,44.1,30.7,30.07,NW,309,8.0,11.0,59,0.00,,CLR,0.00,283.00,VWS V14.01,2013-01-19 16:32:00,
2013-01-19 10:33:00,44.1,30.7,30.07,WNW,301,7.0,11.0,59,0.00,,CLR,0.00,323.00,VWS V14.01,2013-01-19 16:33:00,
2013-01-19 10:35:00,43.6,30.6,30.08,NW,313,7.0,15.0,60,0.00,,CLR,0.00,323.00,VWS V14.01,2013-01-19 16:35:00,
2013-01-19 10:40:00,43.9,30.5,30.08,NNW,339,11.0,18.0,59,0.00,,CLR,0.00,403.00,VWS V14.01,2013-01-19 16:40:00,
2013-01-19 10:47:00,44.1,30.7,30.07,WNW,298,4.0,13.0,59,0.00,,CLR,0.00,497.00,VWS V14.01,2013-01-19 16:47:00,
2013-01-19 10:52:00,44.5,31.1,30.06,NW,309,6.0,18.0,59,0.00,,CLR,0.00,399.00,VWS V14.01,2013-01-19 16:52:00,
2013-01-19 10:57:00,44.9,31.5,30.06,WNW,290,7.0,16.0,59,0.00,,CLR,0.00,499.00,VWS V14.01,2013-01-19 16:57:00,
2013-01-19 11:02:00,45.2,31.7,30.06,West,279,7.0,12.0,59,0.00,,CLR,0.00,515.00,VWS V14.01,2013-01-19 17:02:00,
2013-01-19 11:07:00,45.8,31.9,30.05,NNW,328,7.0,11.0,58,0.00,,CLR,0.00,446.00,VWS V14.01,2013-01-19 17:07:00,
2013-01-19 11:12:00,46.1,31.7,30.05,NW,306,6.0,14.0,57,0.00,,CLR,0.00,489.00,VWS V14.01,2013-01-19 17:12:00,
2013-01-19 11:18:00,46.1,31.7,30.04,NW,304,8.0,12.0,57,0.00,,CLR,0.00,526.00,VWS V14.01,2013-01-19 17:18:00,
2013-01-19 11:23:00,46.2,32.2,30.03,NNW,336,3.0,13.0,58,0.00,,CLR,0.00,531.00,VWS V14.01,2013-01-19 17:23:00,
2013-01-19 11:28:00,46.5,32.5,30.03,WNW,294,8.0,12.0,58,0.00,,CLR,0.00,510.00,VWS V14.01,2013-01-19 17:28:00,
2013-01-19 11:29:00,47.3,32.8,30.01,North,351,22.0,22.0,57,0.00,,CLR,0.00,531.00,VWS V14.01,2013-01-19 17:29:00,
2013-01-19 11:31:00,47.3,32.8,30.01,NNW,340,14.0,14.0,57,0.00,,CLR,0.00,534.00,VWS V14.01,2013-01-19 17:31:00,
2013-01-19 11:32:00,47.3,32.8,30.01,NNW,332,11.0,21.0,57,0.00,,CLR,0.00,538.00,VWS V14.01,2013-01-19 17:32:00,
2013-01-19 11:33:00,46.8,32.4,30.02,NW,317,5.0,20.0,57,0.00,,CLR,0.00,531.00,VWS V14.01,2013-01-19 17:33:00,
2013-01-19 11:37:00,47.4,32.5,30.01,NNW,338,7.0,14.0,56,0.00,,CLR,0.00,545.00,VWS V14.01,2013-01-19 17:37:00,
2013-01-19 11:39:00,47.3,32.8,30.02,NNW,335,17.0,18.0,57,0.00,,CLR,0.00,529.00,VWS V14.01,2013-01-19 17:39:00,
2013-01-19 11:40:00,47.6,32.7,30.01,NNW,339,6.0,11.0,56,0.00,,CLR,0.00,540.00,VWS V14.01,2013-01-19 17:40:00,
2013-01-19 11:42:00,47.7,32.8,30.00,NW,317,5.0,21.0,56,0.00,,CLR,0.00,547.00,VWS V14.01,2013-01-19 17:42:00,
2013-01-19 11:44:00,47.7,32.8,30.00,NNW,343,6.0,16.0,56,0.00,,CLR,0.00,455.00,VWS V14.01,2013-01-19 17:44:00,
2013-01-19 11:45:00,47.7,32.8,30.00,NNW,345,13.0,20.0,56,0.00,,CLR,0.00,394.00,VWS V14.01,2013-01-19 17:45:00,
2013-01-19 11:46:00,47.7,32.8,30.00,NW,309,6.0,13.0,56,0.00,,CLR,0.00,411.00,VWS V14.01,2013-01-19 17:46:00,
2013-01-19 11:47:00,47.3,32.8,30.01,NW,322,12.0,21.0,57,0.00,,CLR,0.00,534.00,VWS V14.01,2013-01-19 17:47:00,
2013-01-19 11:49:00,47.9,33.0,30.00,NNW,337,17.0,21.0,56,0.00,,CLR,0.00,454.00,VWS V14.01,2013-01-19 17:49:00,
2013-01-19 11:50:00,47.9,33.0,30.00,North,360,6.0,17.0,56,0.00,,CLR,0.00,385.00,VWS V14.01,2013-01-19 17:50:00,
2013-01-19 11:51:00,47.9,33.0,29.99,NNW,339,3.0,13.0,56,0.00,,CLR,0.00,446.00,VWS V14.01,2013-01-19 17:51:00,
2013-01-19 11:52:00,47.9,33.0,30.00,NW,308,6.0,11.0,56,0.00,,CLR,0.00,471.00,VWS V14.01,2013-01-19 17:52:00,
2013-01-19 11:54:00,48.0,33.1,30.00,North,351,15.0,19.0,56,0.00,,CLR,0.00,497.00,VWS V14.01,2013-01-19 17:54:00,
2013-01-19 11:55:00,48.0,33.1,30.00,NW,323,8.0,18.0,56,0.00,,CLR,0.00,550.00,VWS V14.01,2013-01-19 17:55:00,
2013-01-19 11:57:00,48.0,33.1,30.00,NW,317,14.0,21.0,56,0.00,,CLR,0.00,543.00,VWS V14.01,2013-01-19 17:57:00,
2013-01-19 11:59:00,48.0,33.1,30.00,NW,321,11.0,11.0,56,0.00,,CLR,0.00,557.00,VWS V14.01,2013-01-19 17:59:00,
2013-01-19 12:00:00,48.0,33.1,30.00,NW,304,11.0,17.0,56,0.00,,CLR,0.00,564.00,VWS V14.01,2013-01-19 18:00:00,
2013-01-19 12:01:00,48.2,33.3,30.00,NW,316,11.0,17.0,56,0.00,,CLR,0.00,575.00,VWS V14.01,2013-01-19 18:01:00,
2013-01-19 12:02:00,48.2,33.3,30.00,West,263,9.0,14.0,56,0.00,,CLR,0.00,503.00,VWS V14.01,2013-01-19 18:02:00,
2013-01-19 12:05:00,48.2,32.8,30.00,North,351,15.0,15.0,55,0.00,,CLR,0.00,533.00,VWS V14.01,2013-01-19 18:05:00,
2013-01-19 12:06:00,48.3,33.3,30.00,NNW,344,8.0,18.0,56,0.00,,CLR,0.00,571.00,VWS V14.01,2013-01-19 18:06:00,
2013-01-19 12:07:00,48.3,33.3,30.00,NW,307,10.0,13.0,56,0.00,,CLR,0.00,483.00,VWS V14.01,2013-01-19 18:07:00,
2013-01-19 12:08:00,48.3,33.3,30.00,NNW,334,9.0,17.0,56,0.00,,CLR,0.00,420.00,VWS V14.01,2013-01-19 18:08:00,
2013-01-19 12:09:00,48.3,33.3,29.99,NW,313,8.0,15.0,56,0.00,,CLR,0.00,438.00,VWS V14.01,2013-01-19 18:09:00,
2013-01-19 12:10:00,48.3,33.3,29.99,NW,308,7.0,15.0,56,0.00,,CLR,0.00,438.00,VWS V14.01,2013-01-19 18:10:00,
2013-01-19 12:11:00,48.3,33.3,29.99,NNW,338,7.0,11.0,56,0.00,,CLR,0.00,383.00,VWS V14.01,2013-01-19 18:11:00,
2013-01-19 12:12:00,48.3,33.8,29.99,NW,309,14.0,14.0,57,0.00,,CLR,0.00,448.00,VWS V14.01,2013-01-19 18:12:00,
2013-01-19 12:14:00,48.5,33.5,29.99,NW,324,14.0,21.0,56,0.00,,CLR,0.00,332.00,VWS V14.01,2013-01-19 18:14:00,
2013-01-19 12:15:00,48.5,33.5,29.99,WNW,299,10.0,17.0,56,0.00,,CLR,0.00,390.00,VWS V14.01,2013-01-19 18:15:00,
2013-01-19 12:17:00,48.3,33.8,29.99,NNW,343,15.0,15.0,57,0.00,,CLR,0.00,613.00,VWS V14.01,2013-01-19 18:17:00,
2013-01-19 12:19:00,48.5,34.0,29.99,WNW,294,8.0,14.0,57,0.00,,CLR,0.00,603.00,VWS V14.01,2013-01-19 18:19:00,
2013-01-19 12:20:00,48.5,34.0,29.99,WNW,290,8.0,14.0,57,0.00,,CLR,0.00,383.00,VWS V14.01,2013-01-19 18:20:00,
2013-01-19 12:21:00,48.5,34.0,29.99,NW,305,7.0,11.0,57,0.00,,CLR,0.00,308.00,VWS V14.01,2013-01-19 18:21:00,
2013-01-19 12:22:00,48.5,34.0,29.99,NW,305,8.0,15.0,57,0.00,,CLR,0.00,360.00,VWS V14.01,2013-01-19 18:22:00,
2013-01-19 12:24:00,48.5,33.5,29.98,NNW,338,10.0,23.0,56,0.00,,CLR,0.00,236.00,VWS V14.01,2013-01-19 18:24:00,
2013-01-19 12:26:00,48.3,33.8,29.99,NNW,336,8.0,21.0,57,0.00,,CLR,0.00,297.00,VWS V14.01,2013-01-19 18:26:00,
2013-01-19 12:27:00,48.3,33.8,29.98,NW,306,10.0,17.0,57,0.00,,CLR,0.00,329.00,VWS V14.01,2013-01-19 18:27:00,
2013-01-19 12:29:00,48.3,33.8,29.98,NNW,332,11.0,16.0,57,0.00,,CLR,0.00,302.00,VWS V14.01,2013-01-19 18:29:00,
2013-01-19 12:30:00,48.3,33.8,29.99,NNW,331,12.0,19.0,57,0.00,,CLR,0.00,387.00,VWS V14.01,2013-01-19 18:30:00,
2013-01-19 12:31:00,48.3,34.2,29.99,NW,316,11.0,15.0,58,0.00,,CLR,0.00,387.00,VWS V14.01,2013-01-19 18:31:00,
2013-01-19 12:32:00,48.3,34.2,29.99,NW,309,15.0,16.0,58,0.00,,CLR,0.00,387.00,VWS V14.01,2013-01-19 18:32:00,
2013-01-19 12:34:00,48.5,34.4,29.99,NW,306,9.0,13.0,58,0.00,,CLR,0.00,387.00,VWS V14.01,2013-01-19 18:34:00,
2013-01-19 12:35:00,48.5,34.4,29.99,NNW,330,12.0,14.0,58,0.00,,CLR,0.00,387.00,VWS V14.01,2013-01-19 18:35:00,
2013-01-19 12:36:00,48.5,34.4,29.99,NNW,336,11.0,14.0,58,0.00,,CLR,0.00,622.00,VWS V14.01,2013-01-19 18:36:00,
2013-01-19 12:37:00,48.6,34.5,29.99,NW,314,9.0,15.0,58,0.00,,CLR,0.00,621.00,VWS V14.01,2013-01-19 18:37:00,
2013-01-19 12:39:00,48.9,34.3,29.99,NW,311,8.0,21.0,57,0.00,,CLR,0.00,564.00,VWS V14.01,2013-01-19 18:39:00,
2013-01-19 12:40:00,48.9,34.3,29.99,NW,304,17.0,21.0,57,0.00,,CLR,0.00,564.00,VWS V14.01,2013-01-19 18:40:00,
2013-01-19 12:41:00,48.9,34.3,29.99,NW,309,7.0,18.0,57,0.00,,CLR,0.00,522.00,VWS V14.01,2013-01-19 18:41:00,
2013-01-19 12:42:00,49.1,34.5,29.99,WNW,299,11.0,18.0,57,0.00,,CLR,0.00,534.00,VWS V14.01,2013-01-19 18:42:00,
2013-01-19 12:43:00,49.1,34.5,29.99,NNW,338,9.0,15.0,57,0.00,,CLR,0.00,475.00,VWS V14.01,2013-01-19 18:43:00,
2013-01-19 12:46:00,49.4,34.8,29.98,North,351,8.0,14.0,57,0.00,,CLR,0.00,264.00,VWS V14.01,2013-01-19 18:46:00,
2013-01-19 12:47:00,49.4,34.8,29.98,NW,308,7.0,12.0,57,0.00,,CLR,0.00,315.00,VWS V14.01,2013-01-19 18:47:00,
2013-01-19 12:50:00,49.4,35.3,29.99,NW,319,8.0,20.0,58,0.00,,CLR,0.00,473.00,VWS V14.01,2013-01-19 18:50:00,
2013-01-19 12:51:00,49.4,35.3,29.98,WNW,295,10.0,13.0,58,0.00,,CLR,0.00,265.00,VWS V14.01,2013-01-19 18:51:00,
2013-01-19 12:52:00,49.4,35.3,29.98,NNW,327,12.0,19.0,58,0.00,,CLR,0.00,281.00,VWS V14.01,2013-01-19 18:52:00,
2013-01-19 12:53:00,49.4,35.3,29.98,NW,305,12.0,16.0,58,0.00,,CLR,0.00,250.00,VWS V14.01,2013-01-19 18:53:00,
2013-01-19 12:54:00,49.2,35.1,29.98,NW,311,10.0,20.0,58,0.00,,CLR,0.00,255.00,VWS V14.01,2013-01-19 18:54:00,
2013-01-19 12:55:00,49.2,35.1,29.98,NW,323,16.0,16.0,58,0.00,,CLR,0.00,257.00,VWS V14.01,2013-01-19 18:55:00,
2013-01-19 12:56:00,49.2,35.1,29.98,NNW,330,17.0,18.0,58,0.00,,CLR,0.00,265.00,VWS V14.01,2013-01-19 18:56:00,
2013-01-19 12:57:00,49.2,35.1,29.98,WNW,286,5.0,17.0,58,0.00,,CLR,0.00,248.00,VWS V14.01,2013-01-19 18:57:00,
2013-01-19 12:58:00,49.2,35.5,29.98,NW,309,10.0,14.0,59,0.00,,CLR,0.00,230.00,VWS V14.01,2013-01-19 18:58:00,
2013-01-19 13:01:00,49.4,35.7,29.98,NNW,330,12.0,14.0,59,0.00,,CLR,0.00,206.00,VWS V14.01,2013-01-19 19:01:00,
2013-01-19 13:02:00,49.4,35.7,29.98,NW,306,7.0,13.0,59,0.00,,CLR,0.00,204.00,VWS V14.01,2013-01-19 19:02:00,
2013-01-19 13:03:00,49.5,35.8,29.98,NW,321,7.0,18.0,59,0.00,,CLR,0.00,200.00,VWS V14.01,2013-01-19 19:03:00,
2013-01-19 13:04:00,49.5,35.3,29.97,NW,311,6.0,13.0,58,0.00,,CLR,0.00,199.00,VWS V14.01,2013-01-19 19:04:00,
2013-01-19 13:06:00,49.5,35.3,29.97,NW,326,13.0,18.0,58,0.00,,CLR,0.00,197.00,VWS V14.01,2013-01-19 19:06:00,
2013-01-19 13:07:00,49.6,35.0,29.97,NNW,343,8.0,17.0,57,0.00,,CLR,0.00,192.00,VWS V14.01,2013-01-19 19:07:00,
2013-01-19 13:09:00,49.6,35.5,29.96,NNW,345,10.0,11.0,58,0.00,,CLR,0.00,199.00,VWS V14.01,2013-01-19 19:09:00,
2013-01-19 13:10:00,49.6,35.5,29.95,WNW,289,5.0,5.0,58,0.00,,CLR,0.00,204.00,VWS V14.01,2013-01-19 19:10:00,
2013-01-19 13:12:00,49.8,35.6,29.96,NW,317,4.0,7.0,58,0.00,,CLR,0.00,197.00,VWS V14.01,2013-01-19 19:12:00,
2013-01-19 13:13:00,49.8,35.6,29.96,WNW,300,3.0,8.0,58,0.00,,CLR,0.00,200.00,VWS V14.01,2013-01-19 19:13:00,
2013-01-19 13:14:00,49.8,35.6,29.96,NNW,329,5.0,8.0,58,0.00,,CLR,0.00,206.00,VWS V14.01,2013-01-19 19:14:00,
2013-01-19 13:15:00,49.9,35.3,29.96,NW,326,7.0,10.0,57,0.00,,CLR,0.00,209.00,VWS V14.01,2013-01-19 19:15:00,
2013-01-19 13:16:00,49.9,35.3,29.96,NW,325,4.0,14.0,57,0.00,,CLR,0.00,214.00,VWS V14.01,2013-01-19 19:16:00,
2013-01-19 13:17:00,49.9,35.3,29.95,NW,316,6.0,8.0,57,0.00,,CLR,0.00,241.00,VWS V14.01,2013-01-19 19:17:00,
2013-01-19 13:19:00,49.9,35.3,29.96,North,10,7.0,9.0,57,0.00,,CLR,0.00,250.00,VWS V14.01,2013-01-19 19:19:00,
2013-01-19 13:20:00,50.1,35.5,29.95,NW,308,5.0,16.0,57,0.00,,CLR,0.00,229.00,VWS V14.01,2013-01-19 19:20:00,
2013-01-19 13:21:00,50.1,35.5,29.96,North,351,9.0,12.0,57,0.00,,CLR,0.00,229.00,VWS V14.01,2013-01-19 19:21:00,
2013-01-19 13:22:00,50.1,35.5,29.96,NNW,342,12.0,12.0,57,0.00,,CLR,0.00,216.00,VWS V14.01,2013-01-19 19:22:00,
2013-01-19 13:24:00,50.1,35.5,29.96,NW,323,7.0,11.0,57,0.00,,CLR,0.00,220.00,VWS V14.01,2013-01-19 19:24:00,
2013-01-19 13:25:00,50.2,35.6,29.97,NNW,332,7.0,9.0,57,0.00,,CLR,0.00,221.00,VWS V14.01,2013-01-19 19:25:00,
2013-01-19 13:26:00,50.2,35.6,29.97,NNW,327,8.0,10.0,57,0.00,,CLR,0.00,225.00,VWS V14.01,2013-01-19 19:26:00,
2013-01-19 13:29:00,50.4,35.8,29.98,NNW,335,10.0,10.0,57,0.00,,CLR,0.00,243.00,VWS V14.01,2013-01-19 19:29:00,
2013-01-19 13:30:00,50.4,35.8,29.98,NW,313,5.0,10.0,57,0.00,,CLR,0.00,246.00,VWS V14.01,2013-01-19 19:30:00,
2013-01-19 13:32:00,50.4,35.8,29.98,WNW,301,8.0,13.0,57,0.00,,CLR,0.00,237.00,VWS V14.01,2013-01-19 19:32:00,
2013-01-19 13:35:00,50.4,36.2,29.97,WNW,301,9.0,10.0,58,0.00,,CLR,0.00,227.00,VWS V14.01,2013-01-19 19:35:00,
2013-01-19 13:36:00,50.4,36.2,29.97,NNW,336,8.0,9.0,58,0.00,,CLR,0.00,227.00,VWS V14.01,2013-01-19 19:36:00,
2013-01-19 13:37:00,50.4,36.2,29.97,NNW,330,7.0,11.0,58,0.00,,CLR,0.00,223.00,VWS V14.01,2013-01-19 19:37:00,
2013-01-19 13:38:00,50.4,36.2,29.97,NNW,335,10.0,10.0,58,0.00,,CLR,0.00,214.00,VWS V14.01,2013-01-19 19:38:00,
2013-01-19 13:39:00,50.4,36.2,29.97,NNW,347,15.0,15.0,58,0.00,,CLR,0.00,213.00,VWS V14.01,2013-01-19 19:39:00,
2013-01-19 13:40:00,50.2,36.0,29.97,NNW,330,13.0,15.0,58,0.00,,CLR,0.00,202.00,VWS V14.01,2013-01-19 19:40:00,
2013-01-19 13:41:00,50.2,36.0,29.97,NNW,336,13.0,15.0,58,0.00,,CLR,0.00,195.00,VWS V14.01,2013-01-19 19:41:00,
2013-01-19 13:42:00,50.2,36.0,29.97,NNW,343,9.0,13.0,58,0.00,,CLR,0.00,193.00,VWS V14.01,2013-01-19 19:42:00,
2013-01-19 13:44:00,50.2,36.4,29.97,NNW,331,7.0,12.0,59,0.00,,CLR,0.00,193.00,VWS V14.01,2013-01-19 19:44:00,
2013-01-19 13:46:00,50.2,36.0,29.97,NNW,329,8.0,12.0,58,0.00,,CLR,0.00,200.00,VWS V14.01,2013-01-19 19:46:00,
2013-01-19 13:47:00,50.2,36.4,29.97,NNW,346,9.0,12.0,59,0.00,,CLR,0.00,200.00,VWS V14.01,2013-01-19 19:47:00,
2013-01-19 13:49:00,50.2,36.4,29.97,NNW,342,10.0,10.0,59,0.00,,CLR,0.00,199.00,VWS V14.01,2013-01-19 19:49:00,
2013-01-19 13:52:00,50.2,36.0,29.97,NNW,341,5.0,10.0,58,0.00,,CLR,0.00,185.00,VWS V14.01,2013-01-19 19:52:00,
2013-01-19 13:54:00,50.2,36.0,29.97,NNE,19,7.0,9.0,58,0.00,,CLR,0.00,179.00,VWS V14.01,2013-01-19 19:54:00,
2013-01-19 13:55:00,50.2,36.0,29.97,NNE,14,4.0,16.0,58,0.00,,CLR,0.00,186.00,VWS V14.01,2013-01-19 19:55:00,
2013-01-19 13:56:00,50.2,36.0,29.97,NNW,344,2.0,4.0,58,0.00,,CLR,0.00,185.00,VWS V14.01,2013-01-19 19:56:00,
2013-01-19 13:57:00,50.2,36.0,29.97,NNW,327,7.0,8.0,58,0.00,,CLR,0.00,192.00,VWS V14.01,2013-01-19 19:57:00,
2013-01-19 13:58:00,50.2,36.0,29.97,NNW,338,9.0,9.0,58,0.00,,CLR,0.00,192.00,VWS V14.01,2013-01-19 19:58:00,
2013-01-19 13:59:00,50.2,36.0,29.97,WNW,302,7.0,9.0,58,0.00,,CLR,0.00,185.00,VWS V14.01,2013-01-19 19:59:00,
2013-01-19 14:00:00,50.2,36.0,29.97,NW,313,6.0,9.0,58,0.00,,CLR,0.00,172.00,VWS V14.01,2013-01-19 20:00:00,
2013-01-19 14:01:00,50.2,36.0,29.97,NNW,347,5.0,11.0,58,0.00,,CLR,0.00,163.00,VWS V14.01,2013-01-19 20:01:00,
2013-01-19 14:02:00,50.2,36.0,29.97,NW,325,6.0,10.0,58,0.00,,CLR,0.00,156.00,VWS V14.01,2013-01-19 20:02:00,
2013-01-19 14:04:00,50.2,35.6,29.97,NW,320,10.0,12.0,57,0.00,,CLR,0.00,121.00,VWS V14.01,2013-01-19 20:04:00,
2013-01-19 14:06:00,50.2,35.6,29.97,NNW,336,9.0,12.0,57,0.00,,CLR,0.00,116.00,VWS V14.01,2013-01-19 20:06:00,
2013-01-19 14:07:00,50.1,35.9,29.97,NW,313,9.0,9.0,58,0.00,,CLR,0.00,125.00,VWS V14.01,2013-01-19 20:07:00,
2013-01-19 14:09:00,50.1,35.9,29.97,NNW,346,7.0,9.0,58,0.00,,CLR,0.00,188.00,VWS V14.01,2013-01-19 20:09:00,
2013-01-19 14:10:00,50.1,35.9,29.96,NNW,329,11.0,15.0,58,0.00,,CLR,0.00,225.00,VWS V14.01,2013-01-19 20:10:00,
2013-01-19 14:12:00,50.1,35.9,29.96,NNW,331,9.0,11.0,58,0.00,,CLR,0.00,132.00,VWS V14.01,2013-01-19 20:12:00,
2013-01-19 14:13:00,50.1,35.9,29.96,NNW,327,9.0,9.0,58,0.00,,CLR,0.00,121.00,VWS V14.01,2013-01-19 20:13:00,
2013-01-19 14:14:00,50.1,35.9,29.96,NW,315,6.0,9.0,58,0.00,,CLR,0.00,102.00,VWS V14.01,2013-01-19 20:14:00,
2013-01-19 14:16:00,50.2,36.4,29.96,NW,326,7.0,7.0,59,0.00,,CLR,0.00,160.00,VWS V14.01,2013-01-19 20:16:00,
2013-01-19 14:18:00,50.2,36.0,29.96,NNW,329,10.0,11.0,58,0.00,,CLR,0.00,123.00,VWS V14.01,2013-01-19 20:18:00,
2013-01-19 14:19:00,50.2,36.0,29.96,NNW,335,7.0,11.0,58,0.00,,CLR,0.00,114.00,VWS V14.01,2013-01-19 20:19:00,
2013-01-19 14:20:00,50.4,36.2,29.96,NNW,335,5.0,7.0,58,0.00,,CLR,0.00,137.00,VWS V14.01,2013-01-19 20:20:00,
2013-01-19 14:21:00,50.4,36.2,29.96,NW,325,14.0,14.0,58,0.00,,CLR,0.00,160.00,VWS V14.01,2013-01-19 20:21:00,
2013-01-19 14:22:00,50.4,36.2,29.96,NNW,342,10.0,14.0,58,0.00,,CLR,0.00,192.00,VWS V14.01,2013-01-19 20:22:00,
2013-01-19 14:24:00,50.5,36.3,29.96,NW,326,8.0,11.0,58,0.00,,CLR,0.00,132.00,VWS V14.01,2013-01-19 20:24:00,
2013-01-19 14:25:00,50.5,36.3,29.96,NNW,345,10.0,10.0,58,0.00,,CLR,0.00,135.00,VWS V14.01,2013-01-19 20:25:00,
2013-01-19 14:26:00,50.5,36.3,29.96,NNW,336,3.0,10.0,58,0.00,,CLR,0.00,149.00,VWS V14.01,2013-01-19 20:26:00,
2013-01-19 14:27:00,50.5,36.7,29.96,NNW,327,8.0,10.0,59,0.00,,CLR,0.00,74.00,VWS V14.01,2013-01-19 20:27:00,
2013-01-19 14:28:00,50.7,36.5,29.95,NW,313,7.0,11.0,58,0.00,,CLR,0.00,105.00,VWS V14.01,2013-01-19 20:28:00,
2013-01-19 14:29:00,50.7,36.5,29.96,NNW,334,10.0,10.0,58,0.00,,CLR,0.00,160.00,VWS V14.01,2013-01-19 20:29:00,
2013-01-19 14:30:00,50.7,36.5,29.95,NW,309,4.0,10.0,58,0.00,,CLR,0.00,151.00,VWS V14.01,2013-01-19 20:30:00,
2013-01-19 14:31:00,50.8,36.6,29.95,NNW,334,5.0,9.0,58,0.00,,CLR,0.00,160.00,VWS V14.01,2013-01-19 20:31:00,
2013-01-19 14:35:00,51.0,36.8,29.95,NNW,330,6.0,14.0,58,0.00,,CLR,0.00,142.00,VWS V14.01,2013-01-19 20:35:00,
2013-01-19 14:39:00,51.0,36.8,29.95,NW,308,4.0,10.0,58,0.00,,CLR,0.00,149.00,VWS V14.01,2013-01-19 20:39:00,
2013-01-19 14:40:00,51.0,36.8,29.95,NNW,335,6.0,10.0,58,0.00,,CLR,0.00,128.00,VWS V14.01,2013-01-19 20:40:00,
2013-01-19 14:41:00,51.1,36.8,29.95,WNW,302,10.0,11.0,58,0.00,,CLR,0.00,132.00,VWS V14.01,2013-01-19 20:41:00,
2013-01-19 14:42:00,51.1,36.8,29.95,NW,322,4.0,13.0,58,0.00,,CLR,0.00,130.00,VWS V14.01,2013-01-19 20:42:00,
2013-01-19 14:44:00,51.1,36.8,29.95,North,360,8.0,11.0,58,0.00,,CLR,0.00,183.00,VWS V14.01,2013-01-19 20:44:00,
2013-01-19 14:46:00,51.1,36.8,29.96,NW,322,5.0,14.0,58,0.00,,CLR,0.00,153.00,VWS V14.01,2013-01-19 20:46:00,
2013-01-19 14:47:00,51.1,36.4,29.96,NNW,331,9.0,12.0,57,0.00,,CLR,0.00,127.00,VWS V14.01,2013-01-19 20:47:00,
2013-01-19 14:50:00,51.3,37.0,29.96,NNW,333,8.0,13.0,58,0.00,,CLR,0.00,185.00,VWS V14.01,2013-01-19 20:50:00,
2013-01-19 14:51:00,51.3,37.0,29.95,WNW,302,6.0,14.0,58,0.00,,CLR,0.00,171.00,VWS V14.01,2013-01-19 20:51:00,
2013-01-19 14:52:00,51.3,37.0,29.96,NNW,337,9.0,15.0,58,0.00,,CLR,0.00,190.00,VWS V14.01,2013-01-19 20:52:00,
2013-01-19 14:54:00,51.3,36.6,29.96,North,360,12.0,12.0,57,0.00,,CLR,0.00,193.00,VWS V14.01,2013-01-19 20:54:00,
2013-01-19 14:55:00,51.3,37.0,29.96,WNW,295,4.0,14.0,58,0.00,,CLR,0.00,171.00,VWS V14.01,2013-01-19 20:55:00,
2013-01-19 14:56:00,51.3,36.6,29.96,NW,311,10.0,10.0,57,0.00,,CLR,0.00,181.00,VWS V14.01,2013-01-19 20:56:00,
2013-01-19 14:57:00,51.3,36.6,29.96,North,351,8.0,11.0,57,0.00,,CLR,0.00,192.00,VWS V14.01,2013-01-19 20:57:00,
2013-01-19 14:58:00,51.3,36.6,29.96,NW,318,5.0,9.0,57,0.00,,CLR,0.00,176.00,VWS V14.01,2013-01-19 20:58:00,
2013-01-19 14:59:00,51.4,36.7,29.96,North,350,9.0,9.0,57,0.00,,CLR,0.00,132.00,VWS V14.01,2013-01-19 20:59:00,
2013-01-19 15:01:00,51.4,36.7,29.96,NW,307,6.0,11.0,57,0.00,,CLR,0.00,202.00,VWS V14.01,2013-01-19 21:01:00,
2013-01-19 15:02:00,51.4,36.7,29.96,NNW,329,10.0,10.0,57,0.00,,CLR,0.00,218.00,VWS V14.01,2013-01-19 21:02:00,
2013-01-19 15:05:00,51.6,36.9,29.96,NW,325,1.0,12.0,57,0.00,,CLR,0.00,243.00,VWS V14.01,2013-01-19 21:05:00,
2013-01-19 15:06:00,51.6,36.9,29.95,NNW,331,10.0,11.0,57,0.00,,CLR,0.00,239.00,VWS V14.01,2013-01-19 21:06:00,
2013-01-19 15:08:00,51.6,36.9,29.95,NNW,345,8.0,10.0,57,0.00,,CLR,0.00,221.00,VWS V14.01,2013-01-19 21:08:00,
2013-01-19 15:09:00,51.6,36.9,29.95,NNW,343,5.0,9.0,57,0.00,,CLR,0.00,204.00,VWS V14.01,2013-01-19 21:09:00,
2013-01-19 15:11:00,51.6,36.9,29.95,NW,322,7.0,7.0,57,0.00,,CLR,0.00,211.00,VWS V14.01,2013-01-19 21:11:00,
2013-01-19 15:12:00,51.6,36.9,29.95,North,9,10.0,16.0,57,0.00,,CLR,0.00,213.00,VWS V14.01,2013-01-19 21:12:00,
2013-01-19 15:15:00,51.6,36.9,29.95,NW,323,5.0,14.0,57,0.00,,CLR,0.00,220.00,VWS V14.01,2013-01-19 21:15:00,
2013-01-19 15:17:00,51.4,36.7,29.95,WNW,294,10.0,14.0,57,0.00,,CLR,0.00,213.00,VWS V14.01,2013-01-19 21:17:00,
2013-01-19 15:18:00,51.4,36.7,29.95,NNW,347,11.0,11.0,57,0.00,,CLR,0.00,211.00,VWS V14.01,2013-01-19 21:18:00,
2013-01-19 15:19:00,51.4,36.7,29.95,NNW,334,5.0,14.0,57,0.00,,CLR,0.00,211.00,VWS V14.01,2013-01-19 21:19:00,
2013-01-19 15:20:00,51.4,36.7,29.95,NNW,331,6.0,8.0,57,0.00,,CLR,0.00,206.00,VWS V14.01,2013-01-19 21:20:00,
2013-01-19 15:21:00,51.4,36.7,29.95,NNW,346,11.0,11.0,57,0.00,,CLR,0.00,202.00,VWS V14.01,2013-01-19 21:21:00,
2013-01-19 15:22:00,51.4,36.7,29.95,NNW,335,6.0,16.0,57,0.00,,CLR,0.00,199.00,VWS V14.01,2013-01-19 21:22:00,
2013-01-19 15:24:00,51.4,36.7,29.95,North,349,3.0,10.0,57,0.00,,CLR,0.00,199.00,VWS V14.01,2013-01-19 21:24:00,
2013-01-19 15:25:00,51.4,36.7,29.95,NNW,334,8.0,11.0,57,0.00,,CLR,0.00,195.00,VWS V14.01,2013-01-19 21:25:00,
2013-01-19 15:26:00,51.4,36.7,29.95,NNW,344,9.0,13.0,57,0.00,,CLR,0.00,190.00,VWS V14.01,2013-01-19 21:26:00,
2013-01-19 15:27:00,51.4,36.7,29.95,NNW,338,18.0,18.0,57,0.00,,CLR,0.00,186.00,VWS V14.01,2013-01-19 21:27:00,
2013-01-19 15:28:00,51.4,36.7,29.95,NNW,333,9.0,18.0,57,0.00,,CLR,0.00,181.00,VWS V14.01,2013-01-19 21:28:00,
2013-01-19 15:31:00,51.3,37.0,29.95,NW,323,7.0,7.0,58,0.00,,CLR,0.00,171.00,VWS V14.01,2013-01-19 21:31:00,
2013-01-19 15:33:00,51.3,37.0,29.95,NNW,331,6.0,10.0,58,0.00,,CLR,0.00,171.00,VWS V14.01,2013-01-19 21:33:00,
2013-01-19 15:38:00,51.1,36.8,29.95,North,360,14.0,14.0,58,0.00,,CLR,0.00,156.00,VWS V14.01,2013-01-19 21:38:00,
2013-01-19 15:49:00,51.3,37.0,29.95,NW,324,11.0,13.0,58,0.00,,CLR,0.00,163.00,VWS V14.01,2013-01-19 21:49:00,
2013-01-19 15:54:00,51.1,36.8,29.95,NNW,333,5.0,5.0,58,0.00,,CLR,0.00,84.00,VWS V14.01,2013-01-19 21:54:00,
2013-01-19 16:00:00,50.8,37.0,29.95,North,351,6.0,7.0,59,0.00,,CLR,0.00,25.00,VWS V14.01,2013-01-19 22:00:00,
2013-01-19 16:01:00,50.2,37.3,29.96,NNW,342,4.0,6.0,61,0.00,,CLR,0.00,21.00,VWS V14.01,2013-01-19 22:01:00,
2013-01-19 16:05:00,50.5,37.2,29.95,NNW,331,9.0,11.0,60,0.00,,CLR,0.00,23.00,VWS V14.01,2013-01-19 22:05:00,
2013-01-19 16:08:00,50.1,37.6,29.97,NW,325,7.0,11.0,62,0.00,,CLR,0.00,19.00,VWS V14.01,2013-01-19 22:08:00,
2013-01-19 16:11:00,49.9,37.4,29.96,North,360,10.0,11.0,62,0.00,,CLR,0.00,18.00,VWS V14.01,2013-01-19 22:11:00,
2013-01-19 16:12:00,50.4,37.5,29.96,NNW,341,5.0,8.0,61,0.00,,CLR,0.00,21.00,VWS V14.01,2013-01-19 22:12:00,
2013-01-19 16:15:00,49.8,37.3,29.97,NNW,340,8.0,13.0,62,0.00,,CLR,0.00,18.00,VWS V14.01,2013-01-19 22:15:00,
2013-01-19 16:18:00,50.2,37.3,29.96,North,349,6.0,11.0,61,0.00,,CLR,0.00,19.00,VWS V14.01,2013-01-19 22:18:00,
2013-01-19 16:20:00,49.6,37.5,29.97,NNW,340,13.0,13.0,63,0.00,,CLR,0.00,16.00,VWS V14.01,2013-01-19 22:20:00,
2013-01-19 16:21:00,49.5,37.4,29.97,NNW,329,10.0,12.0,63,0.00,,CLR,0.00,14.00,VWS V14.01,2013-01-19 22:21:00,
2013-01-19 16:25:00,49.9,37.4,29.96,NW,323,9.0,11.0,62,0.00,,CLR,0.00,18.00,VWS V14.01,2013-01-19 22:25:00,
2013-01-19 16:26:00,49.4,37.3,29.97,NNW,330,5.0,7.0,63,0.00,,CLR,0.00,12.00,VWS V14.01,2013-01-19 22:26:00,
2013-01-19 16:27:00,49.2,37.2,29.97,NW,310,8.0,11.0,63,0.00,,CLR,0.00,12.00,VWS V14.01,2013-01-19 22:27:00,
2013-01-19 16:30:00,49.8,37.7,29.97,WNW,299,6.0,10.0,63,0.00,,CLR,0.00,16.00,VWS V14.01,2013-01-19 22:30:00,
2013-01-19 16:32:00,49.1,37.1,29.97,NNW,334,5.0,9.0,63,0.00,,CLR,0.00,11.00,VWS V14.01,2013-01-19 22:32:00,
2013-01-19 16:35:00,48.9,36.9,29.97,NW,314,6.0,10.0,63,0.00,,CLR,0.00,9.00,VWS V14.01,2013-01-19 22:35:00,
2013-01-19 16:36:00,48.9,36.9,29.97,NNW,328,3.0,7.0,63,0.00,,CLR,0.00,9.00,VWS V14.01,2013-01-19 22:36:00,
2013-01-19 16:37:00,49.4,37.3,29.97,NNW,342,9.0,9.0,63,0.00,,CLR,0.00,14.00,VWS V14.01,2013-01-19 22:37:00,
2013-01-19 16:38:00,48.9,36.9,29.97,NW,323,5.0,9.0,63,0.00,,CLR,0.00,9.00,VWS V14.01,2013-01-19 22:38:00,
2013-01-19 16:40:00,48.9,36.9,29.98,NNW,344,5.0,7.0,63,0.00,,CLR,0.00,7.00,VWS V14.01,2013-01-19 22:40:00,
2013-01-19 16:41:00,48.9,36.9,29.98,NW,314,7.0,10.0,63,0.00,,CLR,0.00,7.00,VWS V14.01,2013-01-19 22:41:00,
2013-01-19 16:42:00,48.9,36.9,29.98,North,349,7.0,7.0,63,0.00,,CLR,0.00,7.00,VWS V14.01,2013-01-19 22:42:00,
2013-01-19 16:43:00,49.2,37.2,29.97,North,351,5.0,8.0,63,0.00,,CLR,0.00,11.00,VWS V14.01,2013-01-19 22:43:00,
2013-01-19 16:44:00,48.8,36.8,29.98,NW,311,6.0,9.0,63,0.00,,CLR,0.00,5.00,VWS V14.01,2013-01-19 22:44:00,
2013-01-19 16:45:00,48.8,36.8,29.98,NNW,327,3.0,7.0,63,0.00,,CLR,0.00,5.00,VWS V14.01,2013-01-19 22:45:00,
2013-01-19 16:46:00,48.8,36.8,29.98,NW,311,5.0,9.0,63,0.00,,CLR,0.00,5.00,VWS V14.01,2013-01-19 22:46:00,
2013-01-19 16:49:00,48.8,36.8,29.98,NW,318,4.0,8.0,63,0.00,,CLR,0.00,0.00,VWS V14.01,2013-01-19 22:49:00,
2013-01-19 16:50:00,48.8,36.8,29.98,NNE,12,3.0,6.0,63,0.00,,CLR,0.00,0.00,VWS V14.01,2013-01-19 22:50:00,
2013-01-19 16:51:00,48.6,36.6,29.98,NNW,327,7.0,9.0,63,0.00,,CLR,0.00,0.00,VWS V14.01,2013-01-19 22:51:00,
2013-01-19 16:52:00,48.6,36.6,29.98,NNW,339,5.0,7.0,63,0.00,,CLR,0.00,0.00,VWS V14.01,2013-01-19 22:52:00,
2013-01-19 16:53:00,48.6,36.6,29.98,NNW,327,5.0,9.0,63,0.00,,CLR,0.00,0.00,VWS V14.01,2013-01-19 22:53:00,
2013-01-19 16:54:00,48.6,36.6,29.98,NW,326,9.0,9.0,63,0.00,,CLR,0.00,0.00,VWS V14.01,2013-01-19 22:54:00,
2013-01-19 16:55:00,48.6,36.6,29.98,NW,313,3.0,9.0,63,0.00,,CLR,0.00,0.00,VWS V14.01,2013-01-19 22:55:00,
2013-01-19 16:56:00,48.5,36.5,29.99,NNW,334,10.0,10.0,63,0.00,,CLR,0.00,0.00,VWS V14.01,2013-01-19 22:56:00,
2013-01-19 16:57:00,48.5,36.5,29.99,NNW,333,7.0,12.0,63,0.00,,CLR,0.00,0.00,VWS V14.01,2013-01-19 22:57:00,
2013-01-19 16:59:00,48.5,36.5,29.99,WNW,290,6.0,6.0,63,0.00,,CLR,0.00,0.00,VWS V14.01,2013-01-19 22:59:00,
2013-01-19 17:00:00,48.3,36.7,29.99,NW,319,6.0,8.0,64,0.00,,CLR,0.00,0.00,VWS V14.01,2013-01-19 23:00:00,
2013-01-19 17:01:00,48.3,36.7,29.99,NW,318,6.0,11.0,64,0.00,,CLR,0.00,0.00,VWS V14.01,2013-01-19 23:01:00,
2013-01-19 17:02:00,48.3,36.7,29.99,WNW,302,7.0,11.0,64,0.00,,CLR,0.00,0.00,VWS V14.01,2013-01-19 23:02:00,
2013-01-19 17:04:00,48.2,36.6,29.99,NW,321,6.0,10.0,64,0.00,,CLR,0.00,0.00,VWS V14.01,2013-01-19 23:04:00,
2013-01-19 17:05:00,48.2,36.6,29.99,NW,319,3.0,6.0,64,0.00,,CLR,0.00,0.00,VWS V14.01,2013-01-19 23:05:00,
2013-01-19 17:06:00,48.2,36.6,29.99,NNW,334,2.0,10.0,64,0.00,,CLR,0.00,0.00,VWS V14.01,2013-01-19 23:06:00,
2013-01-19 17:08:00,48.0,36.4,30.00,NW,313,4.0,7.0,64,0.00,,CLR,0.00,0.00,VWS V14.01,2013-01-19 23:08:00,
2013-01-19 17:10:00,48.0,36.4,30.00,NW,323,9.0,9.0,64,0.00,,CLR,0.00,0.00,VWS V14.01,2013-01-19 23:10:00,
2013-01-19 17:11:00,48.0,36.4,30.00,North,349,7.0,9.0,64,0.00,,CLR,0.00,0.00,VWS V14.01,2013-01-19 23:11:00,
2013-01-19 17:14:00,47.9,36.3,30.00,WNW,302,3.0,5.0,64,0.00,,CLR,0.00,0.00,VWS V14.01,2013-01-19 23:14:00,
2013-01-19 17:16:00,47.7,36.1,30.00,NNW,348,9.0,9.0,64,0.00,,CLR,0.00,0.00,VWS V14.01,2013-01-19 23:16:00,
2013-01-19 17:17:00,47.7,36.1,30.00,NNW,342,3.0,10.0,64,0.00,,CLR,0.00,0.00,VWS V14.01,2013-01-19 23:17:00,
2013-01-19 17:19:00,47.6,36.4,30.00,NNW,341,4.0,5.0,65,0.00,,CLR,0.00,0.00,VWS V14.01,2013-01-19 23:19:00,
2013-01-19 17:20:00,47.6,36.4,30.00,NNW,342,5.0,10.0,65,0.00,,CLR,0.00,0.00,VWS V14.01,2013-01-19 23:20:00,
2013-01-19 17:21:00,47.6,36.4,30.00,NW,304,5.0,10.0,65,0.00,,CLR,0.00,0.00,VWS V14.01,2013-01-19 23:21:00,
2013-01-19 17:22:00,47.4,36.2,30.00,North,360,2.0,5.0,65,0.00,,CLR,0.00,0.00,VWS V14.01,2013-01-19 23:22:00,
2013-01-19 17:23:00,47.4,36.2,30.00,WNW,295,5.0,7.0,65,0.00,,CLR,0.00,0.00,VWS V14.01,2013-01-19 23:23:00,
2013-01-19 17:24:00,47.4,36.2,30.00,NNW,333,3.0,7.0,65,0.00,,CLR,0.00,0.00,VWS V14.01,2013-01-19 23:24:00,
2013-01-19 17:26:00,47.3,36.2,30.00,NW,316,2.0,10.0,65,0.00,,CLR,0.00,0.00,VWS V14.01,2013-01-19 23:26:00,
2013-01-19 17:27:00,47.1,36.0,30.00,NNW,336,4.0,5.0,65,0.00,,CLR,0.00,0.00,VWS V14.01,2013-01-19 23:27:00,
2013-01-19 17:28:00,47.1,36.0,30.00,WNW,300,3.0,7.0,65,0.00,,CLR,0.00,0.00,VWS V14.01,2013-01-19 23:28:00,
2013-01-19 17:29:00,47.1,36.0,30.00,WNW,297,6.0,7.0,65,0.00,,CLR,0.00,0.00,VWS V14.01,2013-01-19 23:29:00,
2013-01-19 17:30:00,47.0,35.9,30.00,NW,306,5.0,9.0,65,0.00,,CLR,0.00,0.00,VWS V14.01,2013-01-19 23:30:00,
2013-01-19 17:31:00,47.0,35.9,30.00,NNE,32,8.0,8.0,65,0.00,,CLR,0.00,0.00,VWS V14.01,2013-01-19 23:31:00,
2013-01-19 17:32:00,47.0,35.9,30.00,NNW,333,3.0,10.0,65,0.00,,CLR,0.00,0.00,VWS V14.01,2013-01-19 23:32:00,
2013-01-19 17:34:00,46.8,35.7,30.00,NW,320,6.0,7.0,65,0.00,,CLR,0.00,0.00,VWS V14.01,2013-01-19 23:34:00,
2013-01-19 17:36:00,46.8,35.7,30.00,NNW,348,5.0,8.0,65,0.00,,CLR,0.00,0.00,VWS V14.01,2013-01-19 23:36:00,
2013-01-19 17:37:00,46.7,35.6,30.00,NW,315,5.0,7.0,65,0.00,,CLR,0.00,0.00,VWS V14.01,2013-01-19 23:37:00,
2013-01-19 17:40:00,46.7,35.2,30.00,NW,304,4.0,6.0,64,0.00,,CLR,0.00,0.00,VWS V14.01,2013-01-19 23:40:00,
2013-01-19 17:41:00,46.5,35.0,30.00,NW,323,3.0,9.0,64,0.00,,CLR,0.00,0.00,VWS V14.01,2013-01-19 23:41:00,
2013-01-19 17:42:00,46.5,35.0,30.00,NW,325,2.0,6.0,64,0.00,,CLR,0.00,0.00,VWS V14.01,2013-01-19 23:42:00,
2013-01-19 17:43:00,46.5,35.4,30.00,WSW,244,3.0,5.0,65,0.00,,CLR,0.00,0.00,VWS V14.01,2013-01-19 23:43:00,
2013-01-19 17:44:00,46.4,35.3,30.00,NW,315,5.0,6.0,65,0.00,,CLR,0.00,0.00,VWS V14.01,2013-01-19 23:44:00,
2013-01-19 17:48:00,46.2,35.1,30.01,NW,319,5.0,9.0,65,0.00,,CLR,0.00,0.00,VWS V14.01,2013-01-19 23:48:00,
2013-01-19 17:49:00,46.2,35.1,30.01,West,274,3.0,7.0,65,0.00,,CLR,0.00,0.00,VWS V14.01,2013-01-19 23:49:00,
2013-01-19 17:50:00,46.1,35.0,30.01,NNW,331,6.0,9.0,65,0.00,,CLR,0.00,0.00,VWS V14.01,2013-01-19 23:50:00,
2013-01-19 17:52:00,46.1,35.0,30.01,NW,308,5.0,7.0,65,0.00,,CLR,0.00,0.00,VWS V14.01,2013-01-19 23:52:00,
2013-01-19 17:54:00,46.1,35.0,30.01,WNW,300,3.0,6.0,65,0.00,,CLR,0.00,0.00,VWS V14.01,2013-01-19 23:54:00,
2013-01-19 17:55:00,46.0,34.9,30.01,NNW,327,4.0,8.0,65,0.00,,CLR,0.00,0.00,VWS V14.01,2013-01-19 23:55:00,
2013-01-19 17:57:00,46.0,34.9,30.01,NNW,337,9.0,10.0,65,0.00,,CLR,0.00,0.00,VWS V14.01,2013-01-19 23:57:00,
2013-01-19 18:01:00,45.8,34.7,30.02,NW,314,7.0,7.0,65,0.00,,CLR,0.00,0.00,VWS V14.01,2013-01-20 00:01:00,
2013-01-19 18:02:00,45.8,34.7,30.02,NNW,328,3.0,7.0,65,0.00,,CLR,0.00,0.00,VWS V14.01,2013-01-20 00:02:00,
2013-01-19 18:04:00,45.7,34.6,30.02,NW,325,2.0,6.0,65,0.00,,CLR,0.00,0.00,VWS V14.01,2013-01-20 00:04:00,
2013-01-19 18:05:00,45.7,34.6,30.02,North,360,8.0,8.0,65,0.00,,CLR,0.00,0.00,VWS V14.01,2013-01-20 00:05:00,
2013-01-19 18:06:00,45.7,34.6,30.02,NW,325,4.0,8.0,65,0.00,,CLR,0.00,0.00,VWS V14.01,2013-01-20 00:06:00,
2013-01-19 18:07:00,45.5,34.4,30.02,NW,314,4.0,5.0,65,0.00,,CLR,0.00,0.00,VWS V14.01,2013-01-20 00:07:00,
2013-01-19 18:09:00,45.5,34.4,30.02,NNW,334,10.0,10.0,65,0.00,,CLR,0.00,0.00,VWS V14.01,2013-01-20 00:09:00,
2013-01-19 18:10:00,45.4,34.3,30.02,NNE,30,4.0,10.0,65,0.00,,CLR,0.00,0.00,VWS V14.01,2013-01-20 00:10:00,
2013-01-19 18:11:00,45.4,34.3,30.02,NNW,333,7.0,8.0,65,0.00,,CLR,0.00,0.00,VWS V14.01,2013-01-20 00:11:00,
2013-01-19 18:12:00,45.4,34.3,30.02,NNW,333,3.0,7.0,65,0.00,,CLR,0.00,0.00,VWS V14.01,2013-01-20 00:12:00,
2013-01-19 18:14:00,45.2,34.2,30.02,NNW,340,9.0,9.0,65,0.00,,CLR,0.00,0.00,VWS V14.01,2013-01-20 00:14:00,
2013-01-19 18:15:00,45.2,34.2,30.02,NW,314,5.0,11.0,65,0.00,,CLR,0.00,0.00,VWS V14.01,2013-01-20 00:15:00,
2013-01-19 18:16:00,45.2,34.2,30.02,NW,324,6.0,9.0,65,0.00,,CLR,0.00,0.00,VWS V14.01,2013-01-20 00:16:00,
2013-01-19 18:17:00,45.2,34.2,30.02,NW,304,3.0,7.0,65,0.00,,CLR,0.00,0.00,VWS V14.01,2013-01-20 00:17:00,
2013-01-19 18:20:00,45.2,34.2,30.02,WNW,300,4.0,10.0,65,0.00,,CLR,0.00,0.00,VWS V14.01,2013-01-20 00:20:00,
2013-01-19 18:26:00,45.5,34.4,30.02,NNW,329,10.0,10.0,65,0.00,,CLR,0.00,0.00,VWS V14.01,2013-01-20 00:26:00,
2013-01-19 18:30:00,45.7,34.2,30.02,NW,308,5.0,8.0,64,0.00,,CLR,0.00,0.00,VWS V14.01,2013-01-20 00:30:00,
2013-01-19 18:31:00,45.7,34.2,30.02,NW,308,4.0,6.0,64,0.00,,CLR,0.00,0.00,VWS V14.01,2013-01-20 00:31:00,
2013-01-19 18:34:00,45.2,34.2,30.02,NNW,327,6.0,11.0,65,0.00,,CLR,0.00,0.00,VWS V14.01,2013-01-20 00:34:00,
2013-01-19 18:42:00,45.7,34.2,30.02,NNE,25,5.0,9.0,64,0.00,,CLR,0.00,0.00,VWS V14.01,2013-01-20 00:42:00,
2013-01-19 18:46:00,45.5,34.4,30.02,NW,321,4.0,8.0,65,0.00,,CLR,0.00,0.00,VWS V14.01,2013-01-20 00:46:00,
2013-01-19 18:48:00,45.7,34.2,30.02,WNW,303,9.0,9.0,64,0.00,,CLR,0.00,0.00,VWS V14.01,2013-01-20 00:48:00,
2013-01-19 18:55:00,45.5,34.0,30.02,WNW,300,6.0,9.0,64,0.00,,CLR,0.00,0.00,VWS V14.01,2013-01-20 00:55:00,
2013-01-19 18:57:00,45.5,34.4,30.03,WNW,302,4.0,9.0,65,0.00,,CLR,0.00,0.00,VWS V14.01,2013-01-20 00:57:00,
2013-01-19 18:58:00,45.5,34.4,30.03,WNW,282,8.0,12.0,65,0.00,,CLR,0.00,0.00,VWS V14.01,2013-01-20 00:58:00,
2013-01-19 19:00:00,45.4,34.3,30.03,NW,311,5.0,12.0,65,0.00,,CLR,0.00,0.00,VWS V14.01,2013-01-20 01:00:00,
2013-01-19 19:02:00,45.4,34.3,30.03,NNW,330,4.0,9.0,65,0.00,,CLR,0.00,0.00,VWS V14.01,2013-01-20 01:02:00,
2013-01-19 19:04:00,45.5,34.4,30.03,NW,322,5.0,9.0,65,0.00,,CLR,0.00,0.00,VWS V14.01,2013-01-20 01:04:00,
2013-01-19 19:05:00,45.1,34.0,30.03,NNW,342,6.0,10.0,65,0.00,,CLR,0.00,0.00,VWS V14.01,2013-01-20 01:05:00,
2013-01-19 19:06:00,45.1,34.0,30.03,North,360,6.0,7.0,65,0.00,,CLR,0.00,0.00,VWS V14.01,2013-01-20 01:06:00,
2013-01-19 19:09:00,45.5,34.4,30.03,NNW,327,3.0,8.0,65,0.00,,CLR,0.00,0.00,VWS V14.01,2013-01-20 01:09:00,
2013-01-19 19:13:00,44.6,34.0,30.04,NW,326,6.0,8.0,66,0.00,,CLR,0.00,0.00,VWS V14.01,2013-01-20 01:13:00,
2013-01-19 19:14:00,45.4,34.3,30.03,NNW,328,7.0,9.0,65,0.00,,CLR,0.00,0.00,VWS V14.01,2013-01-20 01:14:00,
2013-01-19 19:22:00,44.9,34.2,30.04,NW,323,4.0,9.0,66,0.00,,CLR,0.00,0.00,VWS V14.01,2013-01-20 01:22:00,
2013-01-19 19:28:00,44.5,33.9,30.04,NNW,342,2.0,7.0,66,0.00,,CLR,0.00,0.00,VWS V14.01,2013-01-20 01:28:00,
2013-01-19 19:32:00,43.8,33.6,30.05,NNW,341,2.0,5.0,67,0.00,,CLR,0.00,0.00,VWS V14.01,2013-01-20 01:32:00,
2013-01-19 19:33:00,43.8,33.6,30.05,NNE,28,8.0,8.0,67,0.00,,CLR,0.00,0.00,VWS V14.01,2013-01-20 01:33:00,
2013-01-19 19:34:00,44.2,34.0,30.04,NE,37,2.0,8.0,67,0.00,,CLR,0.00,0.00,VWS V14.01,2013-01-20 01:34:00,
2013-01-19 19:35:00,43.6,33.4,30.05,NE,40,3.0,8.0,67,0.00,,CLR,0.00,0.00,VWS V14.01,2013-01-20 01:35:00,
2013-01-19 19:39:00,43.5,33.3,30.05,NE,46,4.0,7.0,67,0.00,,CLR,0.00,0.00,VWS V14.01,2013-01-20 01:39:00,
2013-01-19 19:40:00,43.9,33.7,30.04,NE,38,9.0,9.0,67,0.00,,CLR,0.00,0.00,VWS V14.01,2013-01-20 01:40:00,
2013-01-19 19:41:00,43.3,33.5,30.05,ENE,58,1.0,2.0,68,0.00,,CLR,0.00,0.00,VWS V14.01,2013-01-20 01:41:00,
2013-01-19 19:43:00,43.3,33.5,30.05,North,5,7.0,11.0,68,0.00,,CLR,0.00,0.00,VWS V14.01,2013-01-20 01:43:00,
2013-01-19 19:44:00,43.3,33.5,30.05,NE,53,4.0,7.0,68,0.00,,CLR,0.00,0.00,VWS V14.01,2013-01-20 01:44:00,
2013-01-19 19:45:00,43.3,33.5,30.05,NE,49,4.0,8.0,68,0.00,,CLR,0.00,0.00,VWS V14.01,2013-01-20 01:45:00,
2013-01-19 19:46:00,43.3,33.5,30.05,NE,51,8.0,8.0,68,0.00,,CLR,0.00,0.00,VWS V14.01,2013-01-20 01:46:00,
2013-01-19 19:48:00,43.3,33.5,30.05,NE,50,1.0,6.0,68,0.00,,CLR,0.00,0.00,VWS V14.01,2013-01-20 01:48:00,
2013-01-19 19:49:00,43.3,33.1,30.05,NNE,20,4.0,5.0,67,0.00,,CLR,0.00,0.00,VWS V14.01,2013-01-20 01:49:00,
2013-01-19 19:50:00,43.3,33.1,30.06,NNE,19,4.0,4.0,67,0.00,,CLR,0.00,0.00,VWS V14.01,2013-01-20 01:50:00,
2013-01-19 19:51:00,43.3,33.1,30.05,North,360,5.0,6.0,67,0.00,,CLR,0.00,0.00,VWS V14.01,2013-01-20 01:51:00,
2013-01-19 19:52:00,43.3,33.1,30.05,NW,320,3.0,5.0,67,0.00,,CLR,0.00,0.00,VWS V14.01,2013-01-20 01:52:00,
2013-01-19 19:54:00,43.3,33.1,30.05,NW,309,1.0,4.0,67,0.00,,CLR,0.00,0.00,VWS V14.01,2013-01-20 01:54:00,
2013-01-19 19:55:00,43.3,33.1,30.05,NW,314,0.0,4.0,67,0.00,,CLR,0.00,0.00,VWS V14.01,2013-01-20 01:55:00,
2013-01-19 19:56:00,43.3,33.1,30.05,NW,315,1.0,2.0,67,0.00,,CLR,0.00,0.00,VWS V14.01,2013-01-20 01:56:00,
2013-01-19 19:57:00,43.3,33.1,30.05,North,351,2.0,7.0,67,0.00,,CLR,0.00,0.00,VWS V14.01,2013-01-20 01:57:00,
2013-01-19 19:59:00,43.3,33.1,30.05,NNW,336,4.0,4.0,67,0.00,,CLR,0.00,0.00,VWS V14.01,2013-01-20 01:59:00,
2013-01-19 20:00:00,43.3,32.7,30.06,NNW,329,2.0,5.0,66,0.00,,CLR,0.00,0.00,VWS V14.01,2013-01-20 02:00:00,
2013-01-19 20:01:00,43.3,32.7,30.06,WNW,300,6.0,6.0,66,0.00,,CLR,0.00,0.00,VWS V14.01,2013-01-20 02:01:00,
2013-01-19 20:02:00,43.3,32.7,30.05,NE,34,1.0,6.0,66,0.00,,CLR,0.00,0.00,VWS V14.01,2013-01-20 02:02:00,
2013-01-19 20:04:00,43.3,32.7,30.06,NE,34,2.0,3.0,66,0.00,,CLR,0.00,0.00,VWS V14.01,2013-01-20 02:04:00,
2013-01-19 20:05:00,43.2,32.6,30.06,NE,35,3.0,3.0,66,0.00,,CLR,0.00,0.00,VWS V14.01,2013-01-20 02:05:00,
2013-01-19 20:06:00,43.2,32.6,30.06,NE,37,5.0,6.0,66,0.00,,CLR,0.00,0.00,VWS V14.01,2013-01-20 02:06:00,
2013-01-19 20:07:00,43.2,32.6,30.06,North,360,4.0,8.0,66,0.00,,CLR,0.00,0.00,VWS V14.01,2013-01-20 02:07:00,
2013-01-19 20:09:00,43.1,32.5,30.06,North,9,3.0,8.0,66,0.00,,CLR,0.00,0.00,VWS V14.01,2013-01-20 02:09:00,
2013-01-19 20:11:00,42.9,32.3,30.06,NNE,33,4.0,10.0,66,0.00,,CLR,0.00,0.00,VWS V14.01,2013-01-20 02:11:00,
2013-01-19 20:12:00,42.8,32.2,30.06,NNE,30,7.0,8.0,66,0.00,,CLR,0.00,0.00,VWS V14.01,2013-01-20 02:12:00,
2013-01-19 20:13:00,42.6,32.0,30.06,NNE,20,7.0,11.0,66,0.00,,CLR,0.00,0.00,VWS V14.01,2013-01-20 02:13:00,
2013-01-19 20:14:00,42.5,32.3,30.06,NNE,13,7.0,11.0,67,0.00,,CLR,0.00,0.00,VWS V14.01,2013-01-20 02:14:00,
2013-01-19 20:23:00,41.2,31.8,30.06,NE,34,4.0,6.0,69,0.00,,CLR,0.00,0.00,VWS V14.01,2013-01-20 02:23:00,
2013-01-19 20:29:00,42.2,32.0,30.06,NNE,33,4.0,8.0,67,0.00,,CLR,0.00,0.00,VWS V14.01,2013-01-20 02:29:00,
2013-01-19 20:34:00,41.3,31.9,30.06,NE,36,2.0,8.0,69,0.00,,CLR,0.00,0.00,VWS V14.01,2013-01-20 02:34:00,
2013-01-19 20:35:00,40.8,31.8,30.06,NE,45,6.0,10.0,70,0.00,,CLR,0.00,0.00,VWS V14.01,2013-01-20 02:35:00,
2013-01-19 20:39:00,40.9,31.9,30.06,NNW,343,2.0,7.0,70,0.00,,CLR,0.00,0.00,VWS V14.01,2013-01-20 02:39:00,
2013-01-19 20:40:00,40.8,31.4,30.06,NNE,16,3.0,7.0,69,0.00,,CLR,0.00,0.00,VWS V14.01,2013-01-20 02:40:00,
2013-01-19 20:43:00,40.8,31.4,30.06,NNE,22,1.0,4.0,69,0.00,,CLR,0.00,0.00,VWS V14.01,2013-01-20 02:43:00,
2013-01-19 20:44:00,40.8,31.8,30.06,NE,49,5.0,6.0,70,0.00,,CLR,0.00,0.00,VWS V14.01,2013-01-20 02:44:00,
2013-01-19 20:45:00,40.9,31.5,30.06,NNE,15,2.0,7.0,69,0.00,,CLR,0.00,0.00,VWS V14.01,2013-01-20 02:45:00,
2013-01-19 20:46:00,41.1,31.7,30.06,NE,44,4.0,6.0,69,0.00,,CLR,0.00,0.00,VWS V14.01,2013-01-20 02:46:00,
2013-01-19 20:47:00,41.1,31.7,30.06,NE,38,3.0,4.0,69,0.00,,CLR,0.00,0.00,VWS V14.01,2013-01-20 02:47:00,
2013-01-19 20:48:00,41.1,31.7,30.06,NE,40,4.0,4.0,69,0.00,,CLR,0.00,0.00,VWS V14.01,2013-01-20 02:48:00,
2013-01-19 20:49:00,40.8,31.8,30.06,NE,42,7.0,7.0,70,0.00,,CLR,0.00,0.00,VWS V14.01,2013-01-20 02:49:00,
2013-01-19 20:50:00,41.2,31.5,30.06,NE,38,1.0,5.0,68,0.00,,CLR,0.00,0.00,VWS V14.01,2013-01-20 02:50:00,
2013-01-19 20:51:00,41.3,31.5,30.06,ENE,60,5.0,6.0,68,0.00,,CLR,0.00,0.00,VWS V14.01,2013-01-20 02:51:00,
2013-01-19 20:52:00,41.3,31.5,30.06,NE,38,5.0,7.0,68,0.00,,CLR,0.00,0.00,VWS V14.01,2013-01-20 02:52:00,
2013-01-19 20:53:00,41.5,31.7,30.06,NNE,24,7.0,7.0,68,0.00,,CLR,0.00,0.00,VWS V14.01,2013-01-20 02:53:00,
2013-01-19 20:54:00,40.8,31.4,30.06,NNE,17,3.0,3.0,69,0.00,,CLR,0.00,0.00,VWS V14.01,2013-01-20 02:54:00,
2013-01-19 20:55:00,41.6,31.8,30.06,NE,51,5.0,9.0,68,0.00,,CLR,0.00,0.00,VWS V14.01,2013-01-20 02:55:00,
2013-01-19 20:56:00,41.6,31.5,30.06,North,360,4.0,9.0,67,0.00,,CLR,0.00,0.00,VWS V14.01,2013-01-20 02:56:00,
2013-01-19 20:57:00,41.8,31.7,30.06,NNE,31,8.0,8.0,67,0.00,,CLR,0.00,0.00,VWS V14.01,2013-01-20 02:57:00,
2013-01-19 20:59:00,41.9,31.8,30.06,NE,49,4.0,8.0,67,0.00,,CLR,0.00,0.00,VWS V14.01,2013-01-20 02:59:00,
2013-01-19 21:01:00,41.9,31.8,30.06,NE,42,2.0,6.0,67,0.00,,CLR,0.00,0.00,VWS V14.01,2013-01-20 03:01:00,
2013-01-19 21:02:00,41.9,31.8,30.07,North,360,4.0,6.0,67,0.00,,CLR,0.00,0.00,VWS V14.01,2013-01-20 03:02:00,
2013-01-19 21:03:00,41.8,31.7,30.07,North,360,2.0,7.0,67,0.00,,CLR,0.00,0.00,VWS V14.01,2013-01-20 03:03:00,
2013-01-19 21:04:00,41.8,31.7,30.07,North,360,9.0,9.0,67,0.00,,CLR,0.00,0.00,VWS V14.01,2013-01-20 03:04:00,
2013-01-19 21:05:00,41.8,31.7,30.07,NE,53,2.0,14.0,67,0.00,,CLR,0.00,0.00,VWS V14.01,2013-01-20 03:05:00,
2013-01-19 21:06:00,41.9,31.8,30.07,North,9,9.0,11.0,67,0.00,,CLR,0.00,0.00,VWS V14.01,2013-01-20 03:06:00,
2013-01-19 21:07:00,41.9,31.8,30.07,NE,40,3.0,10.0,67,0.00,,CLR,0.00,0.00,VWS V14.01,2013-01-20 03:07:00,
2013-01-19 21:08:00,41.9,31.8,30.07,NNW,344,1.0,7.0,67,0.00,,CLR,0.00,0.00,VWS V14.01,2013-01-20 03:08:00,
2013-01-19 21:10:00,41.9,31.4,30.07,NNE,32,8.0,11.0,66,0.00,,CLR,0.00,0.00,VWS V14.01,2013-01-20 03:10:00,
2013-01-19 21:11:00,41.9,31.4,30.07,NE,55,7.0,8.0,66,0.00,,CLR,0.00,0.00,VWS V14.01,2013-01-20 03:11:00,
2013-01-19 21:12:00,41.9,31.4,30.07,ENE,65,2.0,7.0,66,0.00,,CLR,0.00,0.00,VWS V14.01,2013-01-20 03:12:00,
2013-01-19 21:13:00,41.9,31.4,30.07,North,11,4.0,6.0,66,0.00,,CLR,0.00,0.00,VWS V14.01,2013-01-20 03:13:00,
2013-01-19 21:15:00,41.8,31.7,30.07,North,10,5.0,9.0,67,0.00,,CLR,0.00,0.00,VWS V14.01,2013-01-20 03:15:00,
2013-01-19 21:17:00,41.8,31.7,30.08,ESE,107,4.0,7.0,67,0.00,,CLR,0.00,0.00,VWS V14.01,2013-01-20 03:17:00,
2013-01-19 21:18:00,41.8,31.7,30.08,NE,46,2.0,7.0,67,0.00,,CLR,0.00,0.00,VWS V14.01,2013-01-20 03:18:00,
2013-01-19 21:19:00,41.6,31.5,30.08,NE,41,11.0,14.0,67,0.00,,CLR,0.00,0.00,VWS V14.01,2013-01-20 03:19:00,
2013-01-19 21:20:00,41.5,31.4,30.08,North,360,7.0,11.0,67,0.00,,CLR,0.00,0.00,VWS V14.01,2013-01-20 03:20:00,
2013-01-19 21:21:00,41.5,31.4,30.08,NE,44,6.0,9.0,67,0.00,,CLR,0.00,0.00,VWS V14.01,2013-01-20 03:21:00,
2013-01-19 21:23:00,41.3,31.5,30.08,NE,37,2.0,12.0,68,0.00,,CLR,0.00,0.00,VWS V14.01,2013-01-20 03:23:00,
2013-01-19 21:24:00,41.2,31.5,30.08,ENE,76,3.0,7.0,68,0.00,,CLR,0.00,0.00,VWS V14.01,2013-01-20 03:24:00,
2013-01-19 21:25:00,41.1,31.4,30.08,NNE,24,4.0,13.0,68,0.00,,CLR,0.00,0.00,VWS V14.01,2013-01-20 03:25:00,
2013-01-19 21:26:00,41.1,31.4,30.08,NE,34,9.0,9.0,68,0.00,,CLR,0.00,0.00,VWS V14.01,2013-01-20 03:26:00,
2013-01-19 21:27:00,41.1,31.7,30.08,NE,48,5.0,9.0,69,0.00,,CLR,0.00,0.00,VWS V14.01,2013-01-20 03:27:00,
2013-01-19 21:29:00,41.1,31.7,30.08,NE,50,10.0,10.0,69,0.00,,CLR,0.00,0.00,VWS V14.01,2013-01-20 03:29:00,
2013-01-19 21:30:00,41.1,31.7,30.08,NNE,25,9.0,10.0,69,0.00,,CLR,0.00,0.00,VWS V14.01,2013-01-20 03:30:00,
2013-01-19 21:31:00,41.1,31.7,30.09,NE,37,5.0,15.0,69,0.00,,CLR,0.00,0.00,VWS V14.01,2013-01-20 03:31:00,
2013-01-19 21:32:00,41.2,31.8,30.09,NE,50,4.0,13.0,69,0.00,,CLR,0.00,0.00,VWS V14.01,2013-01-20 03:32:00,
2013-01-19 21:33:00,41.2,31.8,30.09,North,9,4.0,11.0,69,0.00,,CLR,0.00,0.00,VWS V14.01,2013-01-20 03:33:00,
2013-01-19 21:34:00,41.3,31.9,30.09,NE,41,7.0,12.0,69,0.00,,CLR,0.00,0.00,VWS V14.01,2013-01-20 03:34:00,
2013-01-19 21:36:00,41.5,32.1,30.09,NE,34,4.0,11.0,69,0.00,,CLR,0.00,0.00,VWS V14.01,2013-01-20 03:36:00,
2013-01-19 21:37:00,41.5,31.7,30.09,NNE,32,5.0,14.0,68,0.00,,CLR,0.00,0.00,VWS V14.01,2013-01-20 03:37:00,
2013-01-19 21:39:00,41.5,31.7,30.09,NNE,26,8.0,10.0,68,0.00,,CLR,0.00,0.00,VWS V14.01,2013-01-20 03:39:00,
2013-01-19 21:40:00,41.5,31.7,30.09,NNE,31,3.0,13.0,68,0.00,,CLR,0.00,0.00,VWS V14.01,2013-01-20 03:40:00,
2013-01-19 21:41:00,41.5,31.7,30.09,NE,36,8.0,14.0,68,0.00,,CLR,0.00,0.00,VWS V14.01,2013-01-20 03:41:00,
2013-01-19 21:42:00,41.5,31.7,30.09,ENE,63,13.0,17.0,68,0.00,,CLR,0.00,0.00,VWS V14.01,2013-01-20 03:42:00,
2013-01-19 21:47:00,41.6,31.8,30.09,NNE,17,10.0,10.0,68,0.00,,CLR,0.00,0.00,VWS V14.01,2013-01-20 03:47:00,
2013-01-19 21:50:00,41.3,31.5,30.09,NNE,30,9.0,12.0,68,0.00,,CLR,0.00,0.00,VWS V14.01,2013-01-20 03:50:00,
2013-01-19 21:51:00,41.2,31.5,30.09,NE,49,8.0,11.0,68,0.00,,CLR,0.00,0.00,VWS V14.01,2013-01-20 03:51:00,
2013-01-19 21:52:00,41.2,31.8,30.09,North,360,10.0,14.0,69,0.00,,CLR,0.00,0.00,VWS V14.01,2013-01-20 03:52:00,
2013-01-19 21:54:00,41.2,31.8,30.09,NE,44,13.0,15.0,69,0.00,,CLR,0.00,0.00,VWS V14.01,2013-01-20 03:54:00,
2013-01-19 21:55:00,41.2,31.8,30.10,North,11,9.0,14.0,69,0.00,,CLR,0.00,0.00,VWS V14.01,2013-01-20 03:55:00,
2013-01-19 21:56:00,41.2,31.8,30.10,NE,43,8.0,17.0,69,0.00,,CLR,0.00,0.00,VWS V14.01,2013-01-20 03:56:00,
2013-01-19 21:57:00,41.2,31.8,30.10,NE,38,10.0,14.0,69,0.00,,CLR,0.00,0.00,VWS V14.01,2013-01-20 03:57:00,
2013-01-19 21:58:00,41.2,31.8,30.10,NE,34,11.0,14.0,69,0.00,,CLR,0.00,0.00,VWS V14.01,2013-01-20 03:58:00,
2013-01-19 22:00:00,41.3,31.5,30.10,NE,42,5.0,13.0,68,0.00,,CLR,0.00,0.00,VWS V14.01,2013-01-20 04:00:00,
2013-01-19 22:04:00,41.2,31.5,30.10,NE,55,17.0,17.0,68,0.00,,CLR,0.00,0.00,VWS V14.01,2013-01-20 04:04:00,
2013-01-19 22:06:00,41.2,31.5,30.10,North,9,9.0,13.0,68,0.00,,CLR,0.00,0.00,VWS V14.01,2013-01-20 04:06:00,
2013-01-19 22:08:00,41.2,31.5,30.10,NNE,24,13.0,21.0,68,0.00,,CLR,0.00,0.00,VWS V14.01,2013-01-20 04:08:00,
2013-01-19 22:09:00,41.1,31.4,30.10,NE,35,11.0,13.0,68,0.00,,CLR,0.00,0.00,VWS V14.01,2013-01-20 04:09:00,
2013-01-19 22:14:00,41.3,31.5,30.10,NE,46,17.0,17.0,68,0.00,,CLR,0.00,0.00,VWS V14.01,2013-01-20 04:14:00,
2013-01-19 22:16:00,40.8,31.1,30.11,NNE,30,8.0,11.0,68,0.00,,CLR,0.00,0.00,VWS V14.01,2013-01-20 04:16:00,
2013-01-19 22:18:00,40.5,31.1,30.11,NE,55,14.0,14.0,69,0.00,,CLR,0.00,0.00,VWS V14.01,2013-01-20 04:18:00,
2013-01-19 22:20:00,41.2,31.5,30.10,North,5,7.0,12.0,68,0.00,,CLR,0.00,0.00,VWS V14.01,2013-01-20 04:20:00,
2013-01-19 22:23:00,40.2,30.9,30.11,ENE,58,0.0,3.0,69,0.00,,CLR,0.00,0.00,VWS V14.01,2013-01-20 04:23:00,
2013-01-19 22:24:00,40.2,30.9,30.11,ENE,57,3.0,6.0,69,0.00,,CLR,0.00,0.00,VWS V14.01,2013-01-20 04:24:00,
2013-01-19 22:25:00,40.9,31.2,30.11,NE,44,11.0,11.0,68,0.00,,CLR,0.00,0.00,VWS V14.01,2013-01-20 04:25:00,
2013-01-19 22:32:00,40.5,31.1,30.11,NNE,14,6.0,14.0,69,0.00,,CLR,0.00,0.00,VWS V14.01,2013-01-20 04:32:00,
2013-01-19 22:37:00,40.2,30.9,30.12,NE,40,3.0,3.0,69,0.00,,CLR,0.00,0.00,VWS V14.01,2013-01-20 04:37:00,
2013-01-19 22:38:00,39.5,30.5,30.12,NE,46,3.0,9.0,70,0.00,,CLR,0.00,0.00,VWS V14.01,2013-01-20 04:38:00,
2013-01-19 22:39:00,39.3,30.4,30.12,NE,53,10.0,10.0,70,0.00,,CLR,0.00,0.00,VWS V14.01,2013-01-20 04:39:00,
2013-01-19 22:43:00,40.1,31.1,30.12,NE,51,1.0,5.0,70,0.00,,CLR,0.00,0.00,VWS V14.01,2013-01-20 04:43:00,
2013-01-19 22:44:00,39.1,30.5,30.12,NNE,15,4.0,8.0,71,0.00,,CLR,0.00,0.00,VWS V14.01,2013-01-20 04:44:00,
2013-01-19 22:47:00,38.9,30.7,30.12,NNW,344,5.0,6.0,72,0.00,,CLR,0.00,0.00,VWS V14.01,2013-01-20 04:47:00,
2013-01-19 22:48:00,38.8,30.6,30.12,NE,38,8.0,8.0,72,0.00,,CLR,0.00,0.00,VWS V14.01,2013-01-20 04:48:00,
2013-01-19 22:49:00,39.6,31.0,30.12,East,90,2.0,6.0,71,0.00,,CLR,0.00,0.00,VWS V14.01,2013-01-20 04:49:00,
2013-01-19 22:50:00,38.6,30.4,30.12,NNE,29,5.0,10.0,72,0.00,,CLR,0.00,0.00,VWS V14.01,2013-01-20 04:50:00,
2013-01-19 22:51:00,38.6,30.4,30.13,North,360,4.0,12.0,72,0.00,,CLR,0.00,0.00,VWS V14.01,2013-01-20 04:51:00,
2013-01-19 22:52:00,38.5,30.3,30.13,NE,49,3.0,6.0,72,0.00,,CLR,0.00,0.00,VWS V14.01,2013-01-20 04:52:00,
2013-01-19 22:53:00,38.5,30.3,30.13,NE,49,4.0,4.0,72,0.00,,CLR,0.00,0.00,VWS V14.01,2013-01-20 04:53:00,
2013-01-19 22:54:00,39.3,30.4,30.12,NNE,22,4.0,12.0,70,0.00,,CLR,0.00,0.00,VWS V14.01,2013-01-20 04:54:00,
2013-01-19 22:55:00,38.3,30.1,30.13,NNE,16,6.0,11.0,72,0.00,,CLR,0.00,0.00,VWS V14.01,2013-01-20 04:55:00,
2013-01-19 22:56:00,38.2,30.3,30.13,NNE,30,4.0,6.0,73,0.00,,CLR,0.00,0.00,VWS V14.01,2013-01-20 04:56:00,
2013-01-19 22:57:00,38.2,30.3,30.13,NNE,30,4.0,4.0,73,0.00,,CLR,0.00,0.00,VWS V14.01,2013-01-20 04:57:00,
2013-01-19 22:58:00,38.0,30.1,30.13,NE,55,2.0,7.0,73,0.00,,CLR,0.00,0.00,VWS V14.01,2013-01-20 04:58:00,
2013-01-19 22:59:00,38.9,30.3,30.12,North,360,3.0,6.0,71,0.00,,CLR,0.00,0.00,VWS V14.01,2013-01-20 04:59:00,
2013-01-19 23:00:00,37.9,30.0,30.14,ENE,57,2.0,8.0,73,0.00,,CLR,0.00,0.00,VWS V14.01,2013-01-20 05:00:00,
2013-01-19 23:01:00,37.8,29.9,30.14,ENE,57,2.0,4.0,73,0.00,,CLR,0.00,0.00,VWS V14.01,2013-01-20 05:01:00,
2013-01-19 23:02:00,37.8,29.9,30.14,ENE,59,0.0,3.0,73,0.00,,CLR,0.00,0.00,VWS V14.01,2013-01-20 05:02:00,
2013-01-19 23:03:00,37.6,29.7,30.14,ENE,72,1.0,7.0,73,0.00,,CLR,0.00,0.00,VWS V14.01,2013-01-20 05:03:00,
2013-01-19 23:04:00,37.6,29.7,30.14,NE,42,4.0,8.0,73,0.00,,CLR,0.00,0.00,VWS V14.01,2013-01-20 05:04:00,
2013-01-19 23:05:00,37.5,29.6,30.14,ENE,62,3.0,8.0,73,0.00,,CLR,0.00,0.00,VWS V14.01,2013-01-20 05:05:00,
2013-01-19 23:06:00,37.5,29.6,30.15,NE,50,7.0,10.0,73,0.00,,CLR,0.00,0.00,VWS V14.01,2013-01-20 05:06:00,
2013-01-19 23:07:00,37.3,29.5,30.15,NE,36,3.0,13.0,73,0.00,,CLR,0.00,0.00,VWS V14.01,2013-01-20 05:07:00,
2013-01-19 23:08:00,37.3,29.5,30.15,ENE,63,11.0,13.0,73,0.00,,CLR,0.00,0.00,VWS V14.01,2013-01-20 05:08:00,
2013-01-19 23:09:00,37.3,29.1,30.15,ENE,59,3.0,11.0,72,0.00,,CLR,0.00,0.00,VWS V14.01,2013-01-20 05:09:00,
2013-01-19 23:10:00,37.3,29.1,30.15,North,360,6.0,10.0,72,0.00,,CLR,0.00,0.00,VWS V14.01,2013-01-20 05:10:00,
2013-01-19 23:11:00,37.2,29.0,30.15,ENE,76,10.0,11.0,72,0.00,,CLR,0.00,0.00,VWS V14.01,2013-01-20 05:11:00,
2013-01-19 23:12:00,37.2,28.7,30.15,ENE,59,8.0,16.0,71,0.00,,CLR,0.00,0.00,VWS V14.01,2013-01-20 05:12:00,
2013-01-19 23:13:00,37.0,28.5,30.15,NNE,28,6.0,19.0,71,0.00,,CLR,0.00,0.00,VWS V14.01,2013-01-20 05:13:00,
2013-01-19 23:14:00,37.0,28.1,30.15,East,86,7.0,13.0,70,0.00,,CLR,0.00,0.00,VWS V14.01,2013-01-20 05:14:00,
2013-01-19 23:15:00,36.9,28.0,30.16,NE,35,5.0,10.0,70,0.00,,CLR,0.00,0.00,VWS V14.01,2013-01-20 05:15:00,
2013-01-19 23:16:00,36.9,28.0,30.16,ENE,57,8.0,13.0,70,0.00,,CLR,0.00,0.00,VWS V14.01,2013-01-20 05:16:00,
2013-01-19 23:17:00,36.8,28.0,30.16,ENE,71,13.0,16.0,70,0.00,,CLR,0.00,0.00,VWS V14.01,2013-01-20 05:17:00,
2013-01-19 23:18:00,36.5,27.7,30.16,ENE,67,10.0,19.0,70,0.00,,CLR,0.00,0.00,VWS V14.01,2013-01-20 05:18:00,
2013-01-19 23:19:00,36.3,27.1,30.16,NE,54,11.0,16.0,69,0.00,,CLR,0.00,0.00,VWS V14.01,2013-01-20 05:19:00,
2013-01-19 23:20:00,36.2,26.7,30.17,NNE,28,19.0,19.0,68,0.00,,CLR,0.00,0.00,VWS V14.01,2013-01-20 05:20:00,
2013-01-19 23:21:00,36.0,26.1,30.16,NNE,22,6.0,19.0,67,0.00,,CLR,0.00,0.00,VWS V14.01,2013-01-20 05:21:00,
2013-01-19 23:22:00,35.9,25.7,30.17,ENE,71,7.0,20.0,66,0.00,,CLR,0.00,0.00,VWS V14.01,2013-01-20 05:22:00,
2013-01-19 23:23:00,35.8,25.6,30.17,ENE,58,11.0,18.0,66,0.00,,CLR,0.00,0.00,VWS V14.01,2013-01-20 05:23:00,
2013-01-19 23:24:00,35.5,24.9,30.17,NNE,30,10.0,17.0,65,0.00,,CLR,0.00,0.00,VWS V14.01,2013-01-20 05:24:00,
2013-01-19 23:25:00,35.3,24.7,30.17,East,84,10.0,23.0,65,0.00,,CLR,0.00,0.00,VWS V14.01,2013-01-20 05:25:00,
2013-01-19 23:26:00,35.2,24.6,30.17,ENE,77,12.0,19.0,65,0.00,,CLR,0.00,0.00,VWS V14.01,2013-01-20 05:26:00,
2013-01-19 23:27:00,35.0,24.4,30.17,NNE,24,4.0,16.0,65,0.00,,CLR,0.00,0.00,VWS V14.01,2013-01-20 05:27:00,
2013-01-19 23:28:00,35.0,24.4,30.17,ENE,72,10.0,11.0,65,0.00,,CLR,0.00,0.00,VWS V14.01,2013-01-20 05:28:00,
2013-01-19 23:29:00,34.9,24.3,30.17,NE,38,10.0,18.0,65,0.00,,CLR,0.00,0.00,VWS V14.01,2013-01-20 05:29:00,
2013-01-19 23:30:00,34.7,23.8,30.18,North,11,5.0,10.0,64,0.00,,CLR,0.00,0.00,VWS V14.01,2013-01-20 05:30:00,
2013-01-19 23:31:00,34.6,23.7,30.17,East,80,7.0,13.0,64,0.00,,CLR,0.00,0.00,VWS V14.01,2013-01-20 05:31:00,
2013-01-19 23:32:00,34.6,24.1,30.17,NE,54,6.0,15.0,65,0.00,,CLR,0.00,0.00,VWS V14.01,2013-01-20 05:32:00,
2013-01-19 23:33:00,34.4,23.9,30.18,ENE,63,11.0,15.0,65,0.00,,CLR,0.00,0.00,VWS V14.01,2013-01-20 05:33:00,
2013-01-19 23:34:00,34.3,23.8,30.18,NNE,26,4.0,21.0,65,0.00,,CLR,0.00,0.00,VWS V14.01,2013-01-20 05:34:00,
2013-01-19 23:35:00,34.3,23.4,30.18,ENE,77,5.0,14.0,64,0.00,,CLR,0.00,0.00,VWS V14.01,2013-01-20 05:35:00,
2013-01-19 23:36:00,34.1,23.2,30.18,ENE,63,6.0,14.0,64,0.00,,CLR,0.00,0.00,VWS V14.01,2013-01-20 05:36:00,
2013-01-19 23:37:00,34.1,23.2,30.18,ENE,66,10.0,13.0,64,0.00,,CLR,0.00,0.00,VWS V14.01,2013-01-20 05:37:00,
2013-01-19 23:38:00,34.1,23.2,30.18,ENE,73,8.0,13.0,64,0.00,,CLR,0.00,0.00,VWS V14.01,2013-01-20 05:38:00,
2013-01-19 23:39:00,34.0,23.1,30.18,ENE,61,5.0,13.0,64,0.00,,CLR,0.00,0.00,VWS V14.01,2013-01-20 05:39:00,
2013-01-19 23:40:00,34.0,23.1,30.19,NE,46,4.0,17.0,64,0.00,,CLR,0.00,0.00,VWS V14.01,2013-01-20 05:40:00,
2013-01-19 23:43:00,33.8,23.3,30.19,NE,48,20.0,20.0,65,0.00,,CLR,0.00,0.00,VWS V14.01,2013-01-20 05:43:00,
2013-01-19 23:44:00,33.7,23.2,30.20,ENE,77,7.0,20.0,65,0.00,,CLR,0.00,0.00,VWS V14.01,2013-01-20 05:44:00,
2013-01-19 23:45:00,33.5,23.0,30.20,NE,46,15.0,22.0,65,0.00,,CLR,0.00,0.00,VWS V14.01,2013-01-20 05:45:00,
2013-01-19 23:46:00,33.4,22.9,30.20,NE,44,4.0,19.0,65,0.00,,CLR,0.00,0.00,VWS V14.01,2013-01-20 05:46:00,
2013-01-19 23:47:00,33.4,22.9,30.20,NNW,336,2.0,8.0,65,0.00,,CLR,0.00,0.00,VWS V14.01,2013-01-20 05:47:00,
2013-01-19 23:48:00,33.2,22.7,30.20,NE,38,13.0,22.0,65,0.00,,SCT028,0.00,0.00,VWS V14.01,2013-01-20 05:48:00,
2013-01-19 23:52:00,32.7,22.6,30.20,ENE,59,2.0,13.0,66,0.00,,SCT028,0.00,0.00,VWS V14.01,2013-01-20 05:52:00,
2013-01-19 23:54:00,34.0,23.1,30.19,NE,55,10.0,13.0,64,0.00,,CLR,0.00,0.00,VWS V14.01,2013-01-20 05:54:00,
2013-01-19 23:55:00,32.4,22.3,30.21,SE,138,10.0,23.0,66,0.00,,SCT028,0.00,0.00,VWS V14.01,2013-01-20 05:55:00,
2013-01-19 23:57:00,32.1,22.0,30.21,NE,49,17.0,17.0,66,0.00,,SCT028,0.00,0.00,VWS V14.01,2013-01-20 05:57:00,
2013-01-19 23:58:00,31.8,21.8,30.21,NE,43,5.0,19.0,66,0.00,,SCT028,0.00,0.00,VWS V14.01,2013-01-20 05:58:00,